Time,TemperatureF,DewpointF,PressureIn,WindDirection,WindDirectionDegrees,WindSpeedMPH,WindSpeedGustMPH,Humidity,HourlyPrecipIn,Conditions,Clouds,dailyrainin,SoftwareType,DateUTC
2013-04-27 00:00:00,46.1,33.0,30.42,East,93,1.0,1.0,60,0.00,,,0.00,Wunderground v.1.15,2013-04-27 04:00:00,
2013-04-27 00:01:00,46.1,33.0,30.42,East,93,1.0,4.0,60,0.00,,,0.00,Wunderground v.1.15,2013-04-27 04:01:00,
2013-04-27 00:02:00,46.1,33.0,30.42,East,93,0.0,4.0,60,0.00,,,0.00,Wunderground v.1.15,2013-04-27 04:02:00,
2013-04-27 00:03:00,46.1,33.0,30.42,East,93,0.0,4.0,60,0.00,,,0.00,Wunderground v.1.15,2013-04-27 04:03:00,
2013-04-27 00:05:00,46.0,32.9,30.42,East,93,0.0,4.0,60,0.00,,,0.00,Wunderground v.1.15,2013-04-27 04:05:00,
2013-04-27 00:09:00,46.0,32.9,30.42,East,92,0.0,4.0,60,0.00,,,0.00,Wunderground v.1.15,2013-04-27 04:09:00,
2013-04-27 00:14:00,46.2,32.7,30.42,East,90,0.0,0.0,59,0.00,,,0.00,Wunderground v.1.15,2013-04-27 04:14:00,
2013-04-27 00:15:00,46.2,32.7,30.42,East,90,0.0,0.0,59,0.00,,,0.00,Wunderground v.1.15,2013-04-27 04:15:00,
2013-04-27 00:16:00,46.1,33.0,30.42,East,90,0.0,0.0,60,0.00,,,0.00,Wunderground v.1.15,2013-04-27 04:16:00,
2013-04-27 00:18:00,46.2,32.7,30.42,East,90,0.0,0.0,59,0.00,,,0.00,Wunderground v.1.15,2013-04-27 04:18:00,
2013-04-27 00:21:00,46.1,32.6,30.42,East,90,0.0,2.0,59,0.00,,,0.00,Wunderground v.1.15,2013-04-27 04:21:00,
2013-04-27 00:22:00,46.1,33.0,30.42,East,90,1.0,2.0,60,0.00,,,0.00,Wunderground v.1.15,2013-04-27 04:22:00,
2013-04-27 00:23:00,46.0,32.5,30.42,East,90,1.0,2.0,59,0.00,,,0.00,Wunderground v.1.15,2013-04-27 04:23:00,
2013-04-27 00:26:00,46.0,32.5,30.42,East,91,1.0,2.0,59,0.00,,,0.00,Wunderground v.1.15,2013-04-27 04:26:00,
2013-04-27 00:27:00,46.1,32.6,30.42,ESE,102,1.0,2.0,59,0.00,,,0.00,Wunderground v.1.15,2013-04-27 04:27:00,
2013-04-27 00:29:00,46.1,32.6,30.42,East,90,1.0,2.0,59,0.00,,,0.00,Wunderground v.1.15,2013-04-27 04:29:00,
2013-04-27 00:30:00,46.1,32.6,30.42,East,90,1.0,1.0,59,0.00,,,0.00,Wunderground v.1.15,2013-04-27 04:30:00,
2013-04-27 00:34:00,46.2,32.7,30.42,East,87,0.0,4.0,59,0.00,,,0.00,Wunderground v.1.15,2013-04-27 04:34:00,
2013-04-27 00:37:00,46.0,32.5,30.42,East,87,1.0,4.0,59,0.00,,,0.00,Wunderground v.1.15,2013-04-27 04:37:00,
2013-04-27 00:42:00,45.6,32.5,30.42,East,87,1.0,1.0,60,0.00,,,0.00,Wunderground v.1.15,2013-04-27 04:42:00,
2013-04-27 00:43:00,45.5,32.8,30.42,East,88,1.0,3.0,61,0.00,,,0.00,Wunderground v.1.15,2013-04-27 04:43:00,
2013-04-27 00:44:00,45.5,32.8,30.41,East,87,1.0,3.0,61,0.00,,,0.00,Wunderground v.1.15,2013-04-27 04:44:00,
2013-04-27 00:47:00,45.3,32.6,30.41,East,88,1.0,3.0,61,0.00,,,0.00,Wunderground v.1.15,2013-04-27 04:47:00,
2013-04-27 00:48:00,45.2,32.5,30.41,East,88,1.0,3.0,61,0.00,,,0.00,Wunderground v.1.15,2013-04-27 04:48:00,
2013-04-27 00:49:00,45.2,32.9,30.41,East,87,1.0,3.0,62,0.00,,,0.00,Wunderground v.1.15,2013-04-27 04:49:00,
2013-04-27 00:51:00,45.1,32.8,30.42,East,87,1.0,1.0,62,0.00,,,0.00,Wunderground v.1.15,2013-04-27 04:51:00,
2013-04-27 00:54:00,45.0,33.2,30.42,East,87,0.0,1.0,63,0.00,,,0.00,Wunderground v.1.15,2013-04-27 04:54:00,
2013-04-27 00:57:00,45.1,32.8,30.41,East,88,0.0,1.0,62,0.00,,,0.00,Wunderground v.1.15,2013-04-27 04:57:00,
2013-04-27 00:58:00,45.1,32.8,30.41,East,88,0.0,1.0,62,0.00,,,0.00,Wunderground v.1.15,2013-04-27 04:58:00,
2013-04-27 00:59:00,45.1,33.2,30.41,East,87,0.0,1.0,63,0.00,,,0.00,Wunderground v.1.15,2013-04-27 04:59:00,
2013-04-27 01:00:00,45.1,33.2,30.41,East,88,0.0,0.0,63,0.00,,,0.00,Wunderground v.1.15,2013-04-27 05:00:00,
2013-04-27 01:01:00,45.1,32.8,30.41,East,87,0.0,4.0,62,0.00,,,0.00,Wunderground v.1.15,2013-04-27 05:01:00,
2013-04-27 01:02:00,45.2,32.9,30.41,East,88,0.0,4.0,62,0.00,,,0.00,Wunderground v.1.15,2013-04-27 05:02:00,
2013-04-27 01:04:00,45.2,32.9,30.41,East,87,0.0,4.0,62,0.00,,,0.00,Wunderground v.1.15,2013-04-27 05:04:00,
2013-04-27 01:05:00,45.3,33.0,30.41,East,88,0.0,4.0,62,0.00,,,0.00,Wunderground v.1.15,2013-04-27 05:05:00,
2013-04-27 01:08:00,45.3,33.4,30.41,East,88,0.0,4.0,63,0.00,,,0.00,Wunderground v.1.15,2013-04-27 05:08:00,
2013-04-27 01:10:00,45.3,33.4,30.41,East,88,0.0,0.0,63,0.00,,,0.00,Wunderground v.1.15,2013-04-27 05:10:00,
2013-04-27 01:12:00,45.3,33.4,30.41,East,88,0.0,0.0,63,0.00,,,0.00,Wunderground v.1.15,2013-04-27 05:12:00,
2013-04-27 01:17:00,45.5,33.2,30.41,East,86,0.0,1.0,62,0.00,,,0.00,Wunderground v.1.15,2013-04-27 05:17:00,
2013-04-27 01:19:00,45.5,33.2,30.41,East,86,0.0,2.0,62,0.00,,,0.00,Wunderground v.1.15,2013-04-27 05:19:00,
2013-04-27 01:20:00,45.5,33.6,30.42,East,86,1.0,1.0,63,0.00,,,0.00,Wunderground v.1.15,2013-04-27 05:20:00,
2013-04-27 01:22:00,45.4,33.5,30.42,East,86,1.0,1.0,63,0.00,,,0.00,Wunderground v.1.15,2013-04-27 05:22:00,
2013-04-27 01:23:00,45.3,33.4,30.42,East,86,1.0,1.0,63,0.00,,,0.00,Wunderground v.1.15,2013-04-27 05:23:00,
2013-04-27 01:24:00,45.3,33.4,30.42,East,86,1.0,3.0,63,0.00,,,0.00,Wunderground v.1.15,2013-04-27 05:24:00,
2013-04-27 01:25:00,45.3,33.4,30.42,East,86,1.0,3.0,63,0.00,,,0.00,Wunderground v.1.15,2013-04-27 05:25:00,
2013-04-27 01:29:00,45.5,33.6,30.42,East,86,0.0,3.0,63,0.00,,,0.00,Wunderground v.1.15,2013-04-27 05:29:00,
2013-04-27 01:30:00,45.5,33.2,30.42,East,86,0.0,0.0,62,0.00,,,0.00,Wunderground v.1.15,2013-04-27 05:30:00,
2013-04-27 01:32:00,45.8,33.5,30.42,East,86,0.0,3.0,62,0.00,,,0.00,Wunderground v.1.15,2013-04-27 05:32:00,
2013-04-27 01:34:00,46.2,33.5,30.42,East,87,0.0,3.0,61,0.00,,,0.00,Wunderground v.1.15,2013-04-27 05:34:00,
2013-04-27 01:36:00,46.7,34.0,30.42,East,87,0.0,3.0,61,0.00,,,0.00,Wunderground v.1.15,2013-04-27 05:36:00,
2013-04-27 01:40:00,47.3,34.1,30.42,East,95,0.0,0.0,60,0.00,,,0.00,Wunderground v.1.15,2013-04-27 05:40:00,
2013-04-27 01:41:00,47.3,34.1,30.42,East,95,0.0,0.0,60,0.00,,,0.00,Wunderground v.1.15,2013-04-27 05:41:00,
2013-04-27 01:42:00,47.2,34.0,30.42,East,95,0.0,0.0,60,0.00,,,0.00,Wunderground v.1.15,2013-04-27 05:42:00,
2013-04-27 01:44:00,47.0,33.8,30.42,East,95,0.0,0.0,60,0.00,,,0.00,Wunderground v.1.15,2013-04-27 05:44:00,
2013-04-27 01:46:00,46.4,34.1,30.42,East,94,0.0,0.0,62,0.00,,,0.00,Wunderground v.1.15,2013-04-27 05:46:00,
2013-04-27 01:48:00,46.1,33.4,30.42,East,94,0.0,0.0,61,0.00,,,0.00,Wunderground v.1.15,2013-04-27 05:48:00,
2013-04-27 01:51:00,45.8,33.5,30.42,East,94,0.0,0.0,62,0.00,,,0.00,Wunderground v.1.15,2013-04-27 05:51:00,
2013-04-27 01:53:00,45.6,33.7,30.42,East,94,0.0,0.0,63,0.00,,,0.00,Wunderground v.1.15,2013-04-27 05:53:00,
2013-04-27 01:55:00,45.4,33.5,30.42,East,95,0.0,0.0,63,0.00,,,0.00,Wunderground v.1.15,2013-04-27 05:55:00,
2013-04-27 01:56:00,45.5,33.2,30.42,SE,140,0.0,2.0,62,0.00,,,0.00,Wunderground v.1.15,2013-04-27 05:56:00,
2013-04-27 01:57:00,45.5,33.2,30.42,SE,133,0.0,2.0,62,0.00,,,0.00,Wunderground v.1.15,2013-04-27 05:57:00,
2013-04-27 01:59:00,45.5,33.2,30.42,ESE,121,1.0,2.0,62,0.00,,,0.00,Wunderground v.1.15,2013-04-27 05:59:00,
2013-04-27 02:02:00,45.9,32.8,30.42,ESE,109,1.0,5.0,60,0.00,,,0.00,Wunderground v.1.15,2013-04-27 06:02:00,
2013-04-27 02:03:00,46.1,33.0,30.42,ESE,109,1.0,5.0,60,0.00,,,0.00,Wunderground v.1.15,2013-04-27 06:03:00,
2013-04-27 02:06:00,46.1,33.4,30.41,ESE,106,1.0,5.0,61,0.00,,,0.00,Wunderground v.1.15,2013-04-27 06:06:00,
2013-04-27 02:09:00,46.7,33.5,30.42,ESE,105,1.0,5.0,60,0.00,,,0.00,Wunderground v.1.15,2013-04-27 06:09:00,
2013-04-27 02:10:00,46.8,33.2,30.42,ESE,105,1.0,1.0,59,0.00,,,0.00,Wunderground v.1.15,2013-04-27 06:10:00,
2013-04-27 02:11:00,46.9,32.9,30.42,ESE,104,1.0,1.0,58,0.00,,,0.00,Wunderground v.1.15,2013-04-27 06:11:00,
2013-04-27 02:15:00,46.7,33.1,30.41,ESE,111,1.0,1.0,59,0.00,,,0.00,Wunderground v.1.15,2013-04-27 06:15:00,
2013-04-27 02:16:00,46.6,33.0,30.41,SE,130,1.0,2.0,59,0.00,,,0.00,Wunderground v.1.15,2013-04-27 06:16:00,
2013-04-27 02:17:00,46.7,33.1,30.41,ESE,115,0.0,2.0,59,0.00,,,0.00,Wunderground v.1.15,2013-04-27 06:17:00,
2013-04-27 02:18:00,46.7,33.1,30.41,ESE,115,0.0,2.0,59,0.00,,,0.00,Wunderground v.1.15,2013-04-27 06:18:00,
2013-04-27 02:21:00,46.6,33.0,30.41,ESE,112,0.0,0.0,59,0.00,,,0.00,Wunderground v.1.15,2013-04-27 06:21:00,
2013-04-27 02:24:00,46.5,33.4,30.41,ESE,113,0.0,2.0,60,0.00,,,0.00,Wunderground v.1.15,2013-04-27 06:24:00,
2013-04-27 02:29:00,46.5,32.9,30.41,ESE,109,0.0,2.0,59,0.00,,,0.00,Wunderground v.1.15,2013-04-27 06:29:00,
2013-04-27 02:30:00,46.5,32.9,30.41,ESE,121,0.0,2.0,59,0.00,,,0.00,Wunderground v.1.15,2013-04-27 06:30:00,
2013-04-27 02:32:00,46.7,33.1,30.41,East,94,1.0,4.0,59,0.00,,,0.00,Wunderground v.1.15,2013-04-27 06:32:00,
2013-04-27 02:36:00,47.0,33.4,30.41,ESE,102,1.0,4.0,59,0.00,,,0.00,Wunderground v.1.15,2013-04-27 06:36:00,
2013-04-27 02:37:00,47.0,33.4,30.41,ESE,103,1.0,4.0,59,0.00,,,0.00,Wunderground v.1.15,2013-04-27 06:37:00,
2013-04-27 02:39:00,47.1,33.5,30.41,ESE,115,1.0,4.0,59,0.00,,,0.00,Wunderground v.1.15,2013-04-27 06:39:00,
2013-04-27 02:43:00,47.3,33.3,30.41,ESE,120,0.0,4.0,58,0.00,,,0.00,Wunderground v.1.15,2013-04-27 06:43:00,
2013-04-27 02:44:00,47.3,33.7,30.41,ESE,120,0.0,4.0,59,0.00,,,0.00,Wunderground v.1.15,2013-04-27 06:44:00,
2013-04-27 02:47:00,47.0,33.4,30.41,ESE,115,1.0,4.0,59,0.00,,,0.00,Wunderground v.1.15,2013-04-27 06:47:00,
2013-04-27 02:48:00,47.1,33.9,30.41,ESE,112,1.0,4.0,60,0.00,,,0.00,Wunderground v.1.15,2013-04-27 06:48:00,
2013-04-27 02:51:00,47.2,33.6,30.41,ESE,107,1.0,1.0,59,0.00,,,0.00,Wunderground v.1.15,2013-04-27 06:51:00,
2013-04-27 02:52:00,47.3,33.7,30.41,ESE,114,1.0,4.0,59,0.00,,,0.00,Wunderground v.1.15,2013-04-27 06:52:00,
2013-04-27 02:54:00,47.5,33.9,30.41,ESE,114,1.0,4.0,59,0.00,,,0.00,Wunderground v.1.15,2013-04-27 06:54:00,
2013-04-27 02:55:00,47.4,33.8,30.41,ESE,113,0.0,4.0,59,0.00,,,0.00,Wunderground v.1.15,2013-04-27 06:55:00,
2013-04-27 02:57:00,47.4,33.8,30.41,ESE,110,0.0,4.0,59,0.00,,,0.00,Wunderground v.1.15,2013-04-27 06:57:00,
2013-04-27 02:59:00,47.6,34.0,30.41,ESE,107,0.0,4.0,59,0.00,,,0.00,Wunderground v.1.15,2013-04-27 06:59:00,
2013-04-27 03:00:00,47.6,34.0,30.41,ESE,107,0.0,0.0,59,0.00,,,0.00,Wunderground v.1.15,2013-04-27 07:00:00,
2013-04-27 03:01:00,47.6,34.0,30.41,ESE,108,0.0,5.0,59,0.00,,,0.00,Wunderground v.1.15,2013-04-27 07:01:00,
2013-04-27 03:02:00,47.5,33.9,30.41,ESE,120,0.0,5.0,59,0.00,,,0.00,Wunderground v.1.15,2013-04-27 07:02:00,
2013-04-27 03:05:00,47.5,33.9,30.41,ESE,119,0.0,5.0,59,0.00,,,0.00,Wunderground v.1.15,2013-04-27 07:05:00,
2013-04-27 03:07:00,47.5,33.9,30.41,ESE,120,0.0,5.0,59,0.00,,,0.00,Wunderground v.1.15,2013-04-27 07:07:00,
2013-04-27 03:08:00,47.6,34.0,30.41,ESE,120,0.0,5.0,59,0.00,,,0.00,Wunderground v.1.15,2013-04-27 07:08:00,
2013-04-27 03:09:00,47.6,34.0,30.41,ESE,119,0.0,5.0,59,0.00,,,0.00,Wunderground v.1.15,2013-04-27 07:09:00,
2013-04-27 03:11:00,47.5,34.3,30.41,ESE,120,0.0,0.0,60,0.00,,,0.00,Wunderground v.1.15,2013-04-27 07:11:00,
2013-04-27 03:13:00,47.3,34.1,30.41,ESE,118,0.0,2.0,60,0.00,,,0.00,Wunderground v.1.15,2013-04-27 07:13:00,
2013-04-27 03:14:00,47.3,34.1,30.41,ESE,118,0.0,2.0,60,0.00,,,0.00,Wunderground v.1.15,2013-04-27 07:14:00,
2013-04-27 03:15:00,47.3,34.1,30.41,ESE,113,0.0,2.0,60,0.00,,,0.00,Wunderground v.1.15,2013-04-27 07:15:00,
2013-04-27 03:19:00,47.4,34.6,30.41,ESE,109,0.0,2.0,61,0.00,,,0.00,Wunderground v.1.15,2013-04-27 07:19:00,
2013-04-27 03:20:00,47.2,34.4,30.41,ESE,109,0.0,0.0,61,0.00,,,0.00,Wunderground v.1.15,2013-04-27 07:20:00,
2013-04-27 03:21:00,47.1,34.3,30.41,ESE,109,0.0,2.0,61,0.00,,,0.00,Wunderground v.1.15,2013-04-27 07:21:00,
2013-04-27 03:23:00,46.9,34.1,30.41,ESE,109,0.0,2.0,61,0.00,,,0.00,Wunderground v.1.15,2013-04-27 07:23:00,
2013-04-27 03:25:00,46.9,34.1,30.41,ESE,109,0.0,2.0,61,0.00,,,0.00,Wunderground v.1.15,2013-04-27 07:25:00,
2013-04-27 03:27:00,46.9,34.1,30.41,ESE,109,0.0,2.0,61,0.00,,,0.00,Wunderground v.1.15,2013-04-27 07:27:00,
2013-04-27 03:29:00,46.9,34.1,30.40,ESE,109,0.0,2.0,61,0.00,,,0.00,Wunderground v.1.15,2013-04-27 07:29:00,
2013-04-27 03:31:00,46.8,34.5,30.40,ESE,107,0.0,6.0,62,0.00,,,0.00,Wunderground v.1.15,2013-04-27 07:31:00,
2013-04-27 03:33:00,46.8,34.0,30.40,ESE,107,0.0,6.0,61,0.00,,,0.00,Wunderground v.1.15,2013-04-27 07:33:00,
2013-04-27 03:36:00,46.5,33.8,30.40,ESE,107,0.0,6.0,61,0.00,,,0.00,Wunderground v.1.15,2013-04-27 07:36:00,
2013-04-27 03:37:00,46.5,33.8,30.40,ESE,107,0.0,6.0,61,0.00,,,0.00,Wunderground v.1.15,2013-04-27 07:37:00,
2013-04-27 03:40:00,46.4,33.7,30.40,ESE,106,0.0,0.0,61,0.00,,,0.00,Wunderground v.1.15,2013-04-27 07:40:00,
2013-04-27 03:41:00,46.4,33.7,30.40,ESE,107,0.0,0.0,61,0.00,,,0.00,Wunderground v.1.15,2013-04-27 07:41:00,
2013-04-27 03:44:00,46.6,33.9,30.40,East,95,0.0,0.0,61,0.00,,,0.00,Wunderground v.1.15,2013-04-27 07:44:00,
2013-04-27 03:45:00,46.6,33.4,30.40,East,95,0.0,0.0,60,0.00,,,0.00,Wunderground v.1.15,2013-04-27 07:45:00,
2013-04-27 03:49:00,46.3,33.2,30.40,East,95,0.0,2.0,60,0.00,,,0.00,Wunderground v.1.15,2013-04-27 07:49:00,
2013-04-27 03:50:00,46.2,33.5,30.40,East,96,0.0,0.0,61,0.00,,,0.00,Wunderground v.1.15,2013-04-27 07:50:00,
2013-04-27 03:51:00,46.1,33.0,30.40,East,95,0.0,0.0,60,0.00,,,0.00,Wunderground v.1.15,2013-04-27 07:51:00,
2013-04-27 03:54:00,46.0,32.9,30.40,East,96,0.0,0.0,60,0.00,,,0.00,Wunderground v.1.15,2013-04-27 07:54:00,
2013-04-27 03:57:00,45.8,32.7,30.40,East,96,0.0,0.0,60,0.00,,,0.00,Wunderground v.1.15,2013-04-27 07:57:00,
2013-04-27 03:58:00,45.8,32.7,30.40,East,96,0.0,0.0,60,0.00,,,0.00,Wunderground v.1.15,2013-04-27 07:58:00,
2013-04-27 03:59:00,45.8,32.7,30.40,East,96,0.0,0.0,60,0.00,,,0.00,Wunderground v.1.15,2013-04-27 07:59:00,
2013-04-27 04:02:00,46.0,32.9,30.40,East,96,0.0,6.0,60,0.00,,,0.00,Wunderground v.1.15,2013-04-27 08:02:00,
2013-04-27 04:03:00,46.1,32.6,30.40,East,96,0.0,6.0,59,0.00,,,0.00,Wunderground v.1.15,2013-04-27 08:03:00,
2013-04-27 04:04:00,46.1,32.6,30.40,East,96,0.0,6.0,59,0.00,,,0.00,Wunderground v.1.15,2013-04-27 08:04:00,
2013-04-27 04:08:00,46.1,33.0,30.40,East,96,0.0,6.0,60,0.00,,,0.00,Wunderground v.1.15,2013-04-27 08:08:00,
2013-04-27 04:09:00,46.1,33.0,30.40,East,99,0.0,6.0,60,0.00,,,0.00,Wunderground v.1.15,2013-04-27 08:09:00,
2013-04-27 04:13:00,46.2,33.1,30.40,East,99,0.0,1.0,60,0.00,,,0.00,Wunderground v.1.15,2013-04-27 08:13:00,
2013-04-27 04:14:00,46.3,33.2,30.40,East,99,0.0,1.0,60,0.00,,,0.00,Wunderground v.1.15,2013-04-27 08:14:00,
2013-04-27 04:16:00,46.3,33.2,30.40,East,99,0.0,1.0,60,0.00,,,0.00,Wunderground v.1.15,2013-04-27 08:16:00,
2013-04-27 04:17:00,46.3,33.2,30.40,East,99,0.0,1.0,60,0.00,,,0.00,Wunderground v.1.15,2013-04-27 08:17:00,
2013-04-27 04:19:00,46.4,33.3,30.40,East,99,0.0,1.0,60,0.00,,,0.00,Wunderground v.1.15,2013-04-27 08:19:00,
2013-04-27 04:22:00,46.3,33.2,30.40,East,99,0.0,0.0,60,0.00,,,0.00,Wunderground v.1.15,2013-04-27 08:22:00,
2013-04-27 04:24:00,46.3,33.2,30.40,East,99,0.0,0.0,60,0.00,,,0.00,Wunderground v.1.15,2013-04-27 08:24:00,
2013-04-27 04:25:00,46.2,33.1,30.40,East,99,0.0,0.0,60,0.00,,,0.00,Wunderground v.1.15,2013-04-27 08:25:00,
2013-04-27 04:26:00,46.1,33.0,30.40,East,99,0.0,0.0,60,0.00,,,0.00,Wunderground v.1.15,2013-04-27 08:26:00,
2013-04-27 04:30:00,46.1,33.0,30.40,East,99,0.0,0.0,60,0.00,,,0.00,Wunderground v.1.15,2013-04-27 08:30:00,
2013-04-27 04:34:00,46.3,33.2,30.40,East,98,0.0,4.0,60,0.00,,,0.00,Wunderground v.1.15,2013-04-27 08:34:00,
2013-04-27 04:35:00,46.3,33.2,30.40,East,98,0.0,4.0,60,0.00,,,0.00,Wunderground v.1.15,2013-04-27 08:35:00,
2013-04-27 04:36:00,46.2,33.1,30.40,East,98,0.0,4.0,60,0.00,,,0.00,Wunderground v.1.15,2013-04-27 08:36:00,
2013-04-27 04:39:00,46.1,33.0,30.40,East,98,0.0,4.0,60,0.00,,,0.00,Wunderground v.1.15,2013-04-27 08:39:00,
2013-04-27 04:40:00,46.1,33.0,30.40,East,98,0.0,0.0,60,0.00,,,0.00,Wunderground v.1.15,2013-04-27 08:40:00,
2013-04-27 04:41:00,46.1,33.0,30.40,East,98,0.0,0.0,60,0.00,,,0.00,Wunderground v.1.15,2013-04-27 08:41:00,
2013-04-27 04:44:00,46.0,32.9,30.40,East,98,0.0,0.0,60,0.00,,,0.00,Wunderground v.1.15,2013-04-27 08:44:00,
2013-04-27 04:46:00,46.0,32.9,30.40,East,98,0.0,0.0,60,0.00,,,0.00,Wunderground v.1.15,2013-04-27 08:46:00,
2013-04-27 04:47:00,45.9,32.8,30.40,East,98,0.0,0.0,60,0.00,,,0.00,Wunderground v.1.15,2013-04-27 08:47:00,
2013-04-27 04:49:00,45.8,33.1,30.40,East,98,0.0,0.0,61,0.00,,,0.00,Wunderground v.1.15,2013-04-27 08:49:00,
2013-04-27 04:50:00,45.7,32.6,30.40,East,98,0.0,1.0,60,0.00,,,0.00,Wunderground v.1.15,2013-04-27 08:50:00,
2013-04-27 04:54:00,45.4,32.7,30.40,East,98,0.0,1.0,61,0.00,,,0.00,Wunderground v.1.15,2013-04-27 08:54:00,
2013-04-27 04:58:00,45.4,32.3,30.40,East,98,0.0,2.0,60,0.00,,,0.00,Wunderground v.1.15,2013-04-27 08:58:00,
2013-04-27 04:59:00,45.5,32.8,30.40,East,98,0.0,2.0,61,0.00,,,0.00,Wunderground v.1.15,2013-04-27 08:59:00,
2013-04-27 05:00:00,45.4,32.7,30.40,East,98,0.0,0.0,61,0.00,,,0.00,Wunderground v.1.15,2013-04-27 09:00:00,
2013-04-27 05:04:00,45.2,32.5,30.40,East,98,0.0,4.0,61,0.00,,,0.00,Wunderground v.1.15,2013-04-27 09:04:00,
2013-04-27 05:05:00,45.1,32.0,30.40,East,98,0.0,4.0,60,0.00,,,0.00,Wunderground v.1.15,2013-04-27 09:05:00,
2013-04-27 05:06:00,45.1,32.4,30.40,East,98,0.0,4.0,61,0.00,,,0.00,Wunderground v.1.15,2013-04-27 09:06:00,
2013-04-27 05:08:00,44.9,32.3,30.40,East,98,0.0,4.0,61,0.00,,,0.00,Wunderground v.1.15,2013-04-27 09:08:00,
2013-04-27 05:11:00,44.9,32.3,30.40,East,98,0.0,0.0,61,0.00,,,0.00,Wunderground v.1.15,2013-04-27 09:11:00,
2013-04-27 05:12:00,44.8,32.2,30.40,East,98,0.0,0.0,61,0.00,,,0.00,Wunderground v.1.15,2013-04-27 09:12:00,
2013-04-27 05:15:00,45.0,32.3,30.40,East,98,0.0,0.0,61,0.00,,,0.00,Wunderground v.1.15,2013-04-27 09:15:00,
2013-04-27 05:16:00,45.0,32.3,30.40,East,98,0.0,0.0,61,0.00,,,0.00,Wunderground v.1.15,2013-04-27 09:16:00,
2013-04-27 05:17:00,45.0,32.3,30.40,East,98,0.0,0.0,61,0.00,,,0.00,Wunderground v.1.15,2013-04-27 09:17:00,
2013-04-27 05:18:00,45.0,32.3,30.40,East,98,0.0,0.0,61,0.00,,,0.00,Wunderground v.1.15,2013-04-27 09:18:00,
2013-04-27 05:22:00,45.0,31.9,30.40,East,98,0.0,1.0,60,0.00,,,0.00,Wunderground v.1.15,2013-04-27 09:22:00,
2013-04-27 05:24:00,45.3,32.2,30.40,East,98,0.0,1.0,60,0.00,,,0.00,Wunderground v.1.15,2013-04-27 09:24:00,
2013-04-27 05:25:00,45.3,32.2,30.40,East,98,0.0,1.0,60,0.00,,,0.00,Wunderground v.1.15,2013-04-27 09:25:00,
2013-04-27 05:26:00,45.4,32.3,30.40,East,98,0.0,1.0,60,0.00,,,0.00,Wunderground v.1.15,2013-04-27 09:26:00,
2013-04-27 05:27:00,45.4,32.3,30.40,East,98,0.0,1.0,60,0.00,,,0.00,Wunderground v.1.15,2013-04-27 09:27:00,
2013-04-27 05:31:00,45.6,32.5,30.40,ESE,109,0.0,2.0,60,0.00,,,0.00,Wunderground v.1.15,2013-04-27 09:31:00,
2013-04-27 05:33:00,45.9,32.8,30.40,ESE,109,0.0,4.0,60,0.00,,,0.00,Wunderground v.1.15,2013-04-27 09:33:00,
2013-04-27 05:34:00,45.9,32.8,30.40,ESE,109,0.0,4.0,60,0.00,,,0.00,Wunderground v.1.15,2013-04-27 09:34:00,
2013-04-27 05:37:00,45.6,32.5,30.40,ESE,109,0.0,4.0,60,0.00,,,0.00,Wunderground v.1.15,2013-04-27 09:37:00,
2013-04-27 05:39:00,45.5,32.4,30.40,ESE,109,0.0,4.0,60,0.00,,,0.00,Wunderground v.1.15,2013-04-27 09:39:00,
2013-04-27 05:40:00,45.5,32.8,30.40,ESE,109,1.0,2.0,61,0.00,,,0.00,Wunderground v.1.15,2013-04-27 09:40:00,
2013-04-27 05:44:00,45.6,32.5,30.40,ESE,110,1.0,2.0,60,0.00,,,0.00,Wunderground v.1.15,2013-04-27 09:44:00,
2013-04-27 05:46:00,45.6,32.5,30.40,ESE,110,1.0,2.0,60,0.00,,,0.00,Wunderground v.1.15,2013-04-27 09:46:00,
2013-04-27 05:48:00,45.7,32.2,30.40,SE,125,1.0,2.0,59,0.00,,,0.00,Wunderground v.1.15,2013-04-27 09:48:00,
2013-04-27 05:49:00,45.8,32.3,30.40,SE,125,1.0,2.0,59,0.00,,,0.00,Wunderground v.1.15,2013-04-27 09:49:00,
2013-04-27 05:50:00,45.7,32.6,30.40,SE,125,1.0,1.0,60,0.00,,,0.00,Wunderground v.1.15,2013-04-27 09:50:00,
2013-04-27 05:54:00,45.7,32.2,30.40,ESE,121,1.0,1.0,59,0.00,,,0.00,Wunderground v.1.15,2013-04-27 09:54:00,
2013-04-27 05:57:00,45.7,32.2,30.40,ESE,121,0.0,1.0,59,0.00,,,0.00,Wunderground v.1.15,2013-04-27 09:57:00,
2013-04-27 05:58:00,45.8,32.3,30.40,ESE,118,0.0,4.0,59,0.00,,,0.00,Wunderground v.1.15,2013-04-27 09:58:00,
2013-04-27 06:00:00,45.9,32.4,30.40,ESE,118,0.0,0.0,59,0.00,,,0.00,Wunderground v.1.15,2013-04-27 10:00:00,
2013-04-27 06:01:00,45.9,31.9,30.40,ESE,118,0.0,4.0,58,0.00,,,0.00,Wunderground v.1.15,2013-04-27 10:01:00,
2013-04-27 06:04:00,45.6,32.1,30.40,ESE,118,0.0,4.0,59,0.00,,,0.00,Wunderground v.1.15,2013-04-27 10:04:00,
2013-04-27 06:06:00,45.4,32.3,30.40,ESE,118,0.0,4.0,60,0.00,,,0.00,Wunderground v.1.15,2013-04-27 10:06:00,
2013-04-27 06:07:00,45.3,32.2,30.40,ESE,118,0.0,4.0,60,0.00,,,0.00,Wunderground v.1.15,2013-04-27 10:07:00,
2013-04-27 06:10:00,45.4,31.9,30.40,ESE,119,0.0,0.0,59,0.00,,,0.00,Wunderground v.1.15,2013-04-27 10:10:00,
2013-04-27 06:11:00,45.5,32.0,30.40,ESE,119,0.0,0.0,59,0.00,,,0.00,Wunderground v.1.15,2013-04-27 10:11:00,
2013-04-27 06:15:00,45.5,32.0,30.40,ESE,107,0.0,0.0,59,0.00,,,0.00,Wunderground v.1.15,2013-04-27 10:15:00,
2013-04-27 06:16:00,45.4,31.9,30.40,ESE,107,0.0,0.0,59,0.00,,,0.00,Wunderground v.1.15,2013-04-27 10:16:00,
2013-04-27 06:19:00,45.4,31.9,30.40,ESE,111,0.0,0.0,59,0.00,,,0.00,Wunderground v.1.15,2013-04-27 10:19:00,
2013-04-27 06:21:00,45.2,31.7,30.40,ESE,119,0.0,0.0,59,0.00,,,0.00,Wunderground v.1.15,2013-04-27 10:21:00,
2013-04-27 06:24:00,45.4,31.5,30.40,ESE,123,0.0,0.0,58,0.00,,,0.00,Wunderground v.1.15,2013-04-27 10:24:00,
2013-04-27 06:25:00,45.5,31.6,30.40,ESE,123,0.0,0.0,58,0.00,,,0.00,Wunderground v.1.15,2013-04-27 10:25:00,
2013-04-27 06:27:00,45.5,31.6,30.41,ESE,123,0.0,0.0,58,0.00,,,0.00,Wunderground v.1.15,2013-04-27 10:27:00,
2013-04-27 06:31:00,45.8,31.4,30.40,ESE,123,0.0,4.0,57,0.00,,,0.00,Wunderground v.1.15,2013-04-27 10:31:00,
2013-04-27 06:32:00,45.7,31.3,30.40,ESE,123,0.0,4.0,57,0.00,,,0.00,Wunderground v.1.15,2013-04-27 10:32:00,
2013-04-27 06:34:00,45.5,31.1,30.40,ESE,123,0.0,4.0,57,0.00,,,0.00,Wunderground v.1.15,2013-04-27 10:34:00,
2013-04-27 06:37:00,45.6,31.2,30.40,ESE,123,0.0,4.0,57,0.00,,,0.00,Wunderground v.1.15,2013-04-27 10:37:00,
2013-04-27 06:38:00,45.6,31.2,30.41,ESE,122,0.0,4.0,57,0.00,,,0.00,Wunderground v.1.15,2013-04-27 10:38:00,
2013-04-27 06:40:00,45.6,31.2,30.41,ESE,118,0.0,2.0,57,0.00,,,0.00,Wunderground v.1.15,2013-04-27 10:40:00,
2013-04-27 06:43:00,46.0,31.6,30.41,ESE,114,0.0,2.0,57,0.00,,,0.00,Wunderground v.1.15,2013-04-27 10:43:00,
2013-04-27 06:44:00,46.0,31.6,30.41,ESE,114,0.0,2.0,57,0.00,,,0.00,Wunderground v.1.15,2013-04-27 10:44:00,
2013-04-27 06:47:00,46.0,31.2,30.41,ESE,113,1.0,4.0,56,0.00,,,0.00,Wunderground v.1.15,2013-04-27 10:47:00,
2013-04-27 06:49:00,46.0,31.2,30.41,ESE,113,1.0,4.0,56,0.00,,,0.00,Wunderground v.1.15,2013-04-27 10:49:00,
2013-04-27 06:51:00,46.1,31.3,30.41,ESE,116,1.0,1.0,56,0.00,,,0.00,Wunderground v.1.15,2013-04-27 10:51:00,
2013-04-27 06:54:00,46.3,31.4,30.41,ESE,115,1.0,4.0,56,0.00,,,0.00,Wunderground v.1.15,2013-04-27 10:54:00,
2013-04-27 06:56:00,46.6,30.8,30.41,ESE,109,1.0,4.0,54,0.00,,,0.00,Wunderground v.1.15,2013-04-27 10:56:00,
2013-04-27 06:57:00,46.7,30.9,30.41,East,100,1.0,4.0,54,0.00,,,0.00,Wunderground v.1.15,2013-04-27 10:57:00,
2013-04-27 07:01:00,47.1,31.3,30.41,ESE,113,1.0,1.0,54,0.00,,,0.00,Wunderground v.1.15,2013-04-27 11:01:00,
2013-04-27 07:02:00,47.0,31.7,30.41,ESE,113,1.0,1.0,55,0.00,,,0.00,Wunderground v.1.15,2013-04-27 11:02:00,
2013-04-27 07:04:00,47.0,31.7,30.41,ESE,113,1.0,1.0,55,0.00,,,0.00,Wunderground v.1.15,2013-04-27 11:04:00,
2013-04-27 07:08:00,47.1,31.3,30.41,ESE,114,1.0,1.0,54,0.00,,,0.00,Wunderground v.1.15,2013-04-27 11:08:00,
2013-04-27 07:10:00,47.3,31.0,30.41,ESE,107,0.0,0.0,53,0.00,,,0.00,Wunderground v.1.15,2013-04-27 11:10:00,
2013-04-27 07:11:00,47.5,31.7,30.41,ESE,107,0.0,0.0,54,0.00,,,0.00,Wunderground v.1.15,2013-04-27 11:11:00,
2013-04-27 07:14:00,47.5,31.7,30.41,ESE,107,0.0,0.0,54,0.00,,,0.00,Wunderground v.1.15,2013-04-27 11:14:00,
2013-04-27 07:17:00,47.4,32.0,30.41,ESE,117,1.0,2.0,55,0.00,,,0.00,Wunderground v.1.15,2013-04-27 11:17:00,
2013-04-27 07:18:00,47.6,31.8,30.41,ESE,117,1.0,2.0,54,0.00,,,0.00,Wunderground v.1.15,2013-04-27 11:18:00,
2013-04-27 07:19:00,47.7,31.9,30.41,ESE,117,1.0,2.0,54,0.00,,,0.00,Wunderground v.1.15,2013-04-27 11:19:00,
2013-04-27 07:22:00,47.7,32.3,30.41,ESE,113,1.0,1.0,55,0.00,,,0.00,Wunderground v.1.15,2013-04-27 11:22:00,
2013-04-27 07:23:00,47.8,32.4,30.42,ESE,113,1.0,1.0,55,0.00,,,0.00,Wunderground v.1.15,2013-04-27 11:23:00,
2013-04-27 07:26:00,47.9,32.5,30.41,ESE,113,0.0,1.0,55,0.00,,,0.00,Wunderground v.1.15,2013-04-27 11:26:00,
2013-04-27 07:27:00,47.9,32.5,30.41,ESE,113,0.0,1.0,55,0.00,,,0.00,Wunderground v.1.15,2013-04-27 11:27:00,
2013-04-27 07:29:00,47.9,32.0,30.42,ESE,112,0.0,2.0,54,0.00,,,0.00,Wunderground v.1.15,2013-04-27 11:29:00,
2013-04-27 07:33:00,48.4,32.5,30.42,ESE,107,0.0,5.0,54,0.00,,,0.00,Wunderground v.1.15,2013-04-27 11:33:00,
2013-04-27 07:34:00,48.5,32.6,30.42,ESE,107,0.0,5.0,54,0.00,,,0.00,Wunderground v.1.15,2013-04-27 11:34:00,
2013-04-27 07:36:00,48.9,33.0,30.42,ESE,107,0.0,5.0,54,0.00,,,0.00,Wunderground v.1.15,2013-04-27 11:36:00,
2013-04-27 07:38:00,49.0,32.6,30.42,ESE,107,0.0,5.0,53,0.00,,,0.00,Wunderground v.1.15,2013-04-27 11:38:00,
2013-04-27 07:39:00,49.1,32.7,30.42,ESE,106,0.0,5.0,53,0.00,,,0.00,Wunderground v.1.15,2013-04-27 11:39:00,
2013-04-27 07:41:00,49.3,33.3,30.42,ESE,106,0.0,0.0,54,0.00,,,0.00,Wunderground v.1.15,2013-04-27 11:41:00,
2013-04-27 07:43:00,49.6,32.7,30.42,ESE,109,0.0,0.0,52,0.00,,,0.00,Wunderground v.1.15,2013-04-27 11:43:00,
2013-04-27 07:45:00,49.9,33.0,30.42,ESE,109,0.0,0.0,52,0.00,,,0.00,Wunderground v.1.15,2013-04-27 11:45:00,
2013-04-27 07:46:00,49.9,33.0,30.42,ESE,109,0.0,0.0,52,0.00,,,0.00,Wunderground v.1.15,2013-04-27 11:46:00,
2013-04-27 07:47:00,50.0,33.1,30.42,ESE,109,0.0,0.0,52,0.00,,,0.00,Wunderground v.1.15,2013-04-27 11:47:00,
2013-04-27 07:52:00,50.5,33.5,30.42,ESE,115,0.0,0.0,52,0.00,,,0.00,Wunderground v.1.15,2013-04-27 11:52:00,
2013-04-27 07:54:00,50.8,33.8,30.42,ESE,114,0.0,0.0,52,0.00,,,0.00,Wunderground v.1.15,2013-04-27 11:54:00,
2013-04-27 07:56:00,51.0,34.0,30.42,ESE,114,0.0,0.0,52,0.00,,,0.00,Wunderground v.1.15,2013-04-27 11:56:00,
2013-04-27 07:57:00,51.0,34.5,30.42,ESE,114,0.0,0.0,53,0.00,,,0.00,Wunderground v.1.15,2013-04-27 11:57:00,
2013-04-27 08:00:00,51.4,34.8,30.42,ESE,115,0.0,0.0,53,0.00,,,0.00,Wunderground v.1.15,2013-04-27 12:00:00,
2013-04-27 08:03:00,51.8,35.2,30.42,ESE,115,0.0,5.0,53,0.00,,,0.00,Wunderground v.1.15,2013-04-27 12:03:00,
2013-04-27 08:05:00,52.0,34.9,30.42,ESE,114,0.0,5.0,52,0.00,,,0.00,Wunderground v.1.15,2013-04-27 12:05:00,
2013-04-27 08:06:00,52.2,35.1,30.42,ESE,114,0.0,5.0,52,0.00,,,0.00,Wunderground v.1.15,2013-04-27 12:06:00,
2013-04-27 08:09:00,52.7,35.1,30.42,ESE,115,0.0,5.0,51,0.00,,,0.00,Wunderground v.1.15,2013-04-27 12:09:00,
2013-04-27 08:10:00,52.9,35.2,30.42,ESE,114,0.0,0.0,51,0.00,,,0.00,Wunderground v.1.15,2013-04-27 12:10:00,
2013-04-27 08:13:00,53.2,36.0,30.42,ESE,115,0.0,0.0,52,0.00,,,0.00,Wunderground v.1.15,2013-04-27 12:13:00,
2013-04-27 08:15:00,53.5,35.8,30.42,ESE,114,0.0,0.0,51,0.00,,,0.00,Wunderground v.1.15,2013-04-27 12:15:00,
2013-04-27 08:16:00,53.5,35.8,30.42,ESE,115,0.0,0.0,51,0.00,,,0.00,Wunderground v.1.15,2013-04-27 12:16:00,
2013-04-27 08:17:00,53.6,35.9,30.42,ESE,115,0.0,0.0,51,0.00,,,0.00,Wunderground v.1.15,2013-04-27 12:17:00,
2013-04-27 08:19:00,53.8,35.6,30.42,ESE,114,0.0,2.0,50,0.00,,,0.00,Wunderground v.1.15,2013-04-27 12:19:00,
2013-04-27 08:21:00,53.9,35.2,30.42,ESE,115,0.0,0.0,49,0.00,,,0.00,Wunderground v.1.15,2013-04-27 12:21:00,
2013-04-27 08:23:00,54.0,35.8,30.42,ESE,118,0.0,0.0,50,0.00,,,0.00,Wunderground v.1.15,2013-04-27 12:23:00,
2013-04-27 08:24:00,54.0,35.8,30.42,ESE,118,0.0,0.0,50,0.00,,,0.00,Wunderground v.1.15,2013-04-27 12:24:00,
2013-04-27 08:26:00,54.0,35.8,30.42,ESE,123,1.0,2.0,50,0.00,,,0.00,Wunderground v.1.15,2013-04-27 12:26:00,
2013-04-27 08:28:00,54.0,35.8,30.42,East,101,1.0,2.0,50,0.00,,,0.00,Wunderground v.1.15,2013-04-27 12:28:00,
2013-04-27 08:32:00,54.2,36.5,30.42,ESE,103,1.0,1.0,51,0.00,,,0.00,Wunderground v.1.15,2013-04-27 12:32:00,
2013-04-27 08:34:00,54.2,35.9,30.42,ESE,121,1.0,1.0,50,0.00,,,0.00,Wunderground v.1.15,2013-04-27 12:34:00,
2013-04-27 08:36:00,54.3,36.0,30.42,ESE,121,1.0,4.0,50,0.00,,,0.00,Wunderground v.1.15,2013-04-27 12:36:00,
2013-04-27 08:38:00,54.4,36.6,30.42,ESE,121,0.0,4.0,51,0.00,,,0.00,Wunderground v.1.15,2013-04-27 12:38:00,
2013-04-27 08:39:00,54.5,36.7,30.42,ESE,113,0.0,4.0,51,0.00,,,0.00,Wunderground v.1.15,2013-04-27 12:39:00,
2013-04-27 08:42:00,54.6,37.3,30.42,East,97,1.0,6.0,52,0.00,,,0.00,Wunderground v.1.15,2013-04-27 12:42:00,
2013-04-27 08:44:00,54.6,37.3,30.43,ESE,105,1.0,6.0,52,0.00,,,0.00,Wunderground v.1.15,2013-04-27 12:44:00,
2013-04-27 08:45:00,54.6,36.8,30.42,East,94,1.0,6.0,51,0.00,,,0.00,Wunderground v.1.15,2013-04-27 12:45:00,
2013-04-27 08:47:00,54.7,36.4,30.42,East,95,1.0,6.0,50,0.00,,,0.00,Wunderground v.1.15,2013-04-27 12:47:00,
2013-04-27 08:49:00,54.6,36.3,30.42,SE,138,1.0,6.0,50,0.00,,,0.00,Wunderground v.1.15,2013-04-27 12:49:00,
2013-04-27 08:51:00,54.8,36.5,30.42,ESE,111,1.0,1.0,50,0.00,,,0.00,Wunderground v.1.15,2013-04-27 12:51:00,
2013-04-27 08:52:00,54.9,36.6,30.42,ESE,115,1.0,1.0,50,0.00,,,0.00,Wunderground v.1.15,2013-04-27 12:52:00,
2013-04-27 08:54:00,54.9,36.6,30.42,SE,132,1.0,1.0,50,0.00,,,0.00,Wunderground v.1.15,2013-04-27 12:54:00,
2013-04-27 08:55:00,55.0,37.2,30.42,SE,132,1.0,1.0,51,0.00,,,0.00,Wunderground v.1.15,2013-04-27 12:55:00,
2013-04-27 08:57:00,55.2,37.4,30.42,ENE,61,0.0,1.0,51,0.00,,,0.00,Wunderground v.1.15,2013-04-27 12:57:00,
2013-04-27 08:59:00,55.3,38.0,30.42,ENE,63,0.0,1.0,52,0.00,,,0.00,Wunderground v.1.15,2013-04-27 12:59:00,
2013-04-27 09:01:00,55.5,37.7,30.42,ENE,63,0.0,5.0,51,0.00,,,0.00,Wunderground v.1.15,2013-04-27 13:01:00,
2013-04-27 09:02:00,55.7,38.3,30.42,East,80,0.0,5.0,52,0.00,,,0.00,Wunderground v.1.15,2013-04-27 13:02:00,
2013-04-27 09:05:00,55.6,37.7,30.42,East,96,1.0,5.0,51,0.00,,,0.00,Wunderground v.1.15,2013-04-27 13:05:00,
2013-04-27 09:07:00,55.3,37.5,30.42,ESE,115,1.0,5.0,51,0.00,,,0.00,Wunderground v.1.15,2013-04-27 13:07:00,
2013-04-27 09:10:00,54.7,37.4,30.42,ESE,121,2.0,2.0,52,0.00,,,0.00,Wunderground v.1.15,2013-04-27 13:10:00,
2013-04-27 09:11:00,54.5,37.7,30.42,South,182,2.0,2.0,53,0.00,,,0.00,Wunderground v.1.15,2013-04-27 13:11:00,
2013-04-27 09:12:00,54.5,37.7,30.42,South,182,2.0,2.0,53,0.00,,,0.00,Wunderground v.1.15,2013-04-27 13:12:00,
2013-04-27 09:14:00,54.5,37.7,30.42,South,191,2.0,8.0,53,0.00,,,0.00,Wunderground v.1.15,2013-04-27 13:14:00,
2013-04-27 09:16:00,54.5,37.7,30.42,East,99,1.0,8.0,53,0.00,,,0.00,Wunderground v.1.15,2013-04-27 13:16:00,
2013-04-27 09:17:00,54.5,37.7,30.42,ESE,114,1.0,8.0,53,0.00,,,0.00,Wunderground v.1.15,2013-04-27 13:17:00,
2013-04-27 09:20:00,54.4,37.6,30.42,ENE,74,1.0,3.0,53,0.00,,,0.00,Wunderground v.1.15,2013-04-27 13:20:00,
2013-04-27 09:22:00,54.3,38.0,30.42,ENE,71,1.0,3.0,54,0.00,,,0.00,Wunderground v.1.15,2013-04-27 13:22:00,
2013-04-27 09:23:00,54.4,38.1,30.42,ENE,74,1.0,3.0,54,0.00,,,0.00,Wunderground v.1.15,2013-04-27 13:23:00,
2013-04-27 09:25:00,54.3,37.5,30.42,ESE,123,1.0,6.0,53,0.00,,,0.00,Wunderground v.1.15,2013-04-27 13:25:00,
2013-04-27 09:27:00,54.1,37.3,30.42,East,96,1.0,6.0,53,0.00,,,0.00,Wunderground v.1.15,2013-04-27 13:27:00,
2013-04-27 09:29:00,54.0,37.7,30.42,SSE,154,1.0,6.0,54,0.00,,,0.00,Wunderground v.1.15,2013-04-27 13:29:00,
2013-04-27 09:30:00,54.1,37.3,30.42,ESE,106,1.0,1.0,53,0.00,,,0.00,Wunderground v.1.15,2013-04-27 13:30:00,
2013-04-27 09:31:00,54.1,37.3,30.42,East,93,1.0,7.0,53,0.00,,,0.00,Wunderground v.1.15,2013-04-27 13:31:00,
2013-04-27 09:36:00,54.1,37.3,30.42,SE,144,1.0,7.0,53,0.00,,,0.00,Wunderground v.1.15,2013-04-27 13:36:00,
2013-04-27 09:39:00,54.4,37.6,30.42,East,91,1.0,7.0,53,0.00,,,0.00,Wunderground v.1.15,2013-04-27 13:39:00,
2013-04-27 09:41:00,54.5,37.2,30.42,ESE,109,1.0,6.0,52,0.00,,,0.00,Wunderground v.1.15,2013-04-27 13:41:00,
2013-04-27 09:42:00,54.5,37.2,30.42,ESE,114,1.0,6.0,52,0.00,,,0.00,Wunderground v.1.15,2013-04-27 13:42:00,
2013-04-27 09:44:00,54.5,37.7,30.42,ESE,121,1.0,6.0,53,0.00,,,0.00,Wunderground v.1.15,2013-04-27 13:44:00,
2013-04-27 09:48:00,54.9,37.6,30.42,SE,130,1.0,6.0,52,0.00,,,0.00,Wunderground v.1.15,2013-04-27 13:48:00,
2013-04-27 09:49:00,55.0,37.7,30.42,SE,130,1.0,6.0,52,0.00,,,0.00,Wunderground v.1.15,2013-04-27 13:49:00,
2013-04-27 09:50:00,55.1,37.8,30.42,East,86,1.0,1.0,52,0.00,,,0.00,Wunderground v.1.15,2013-04-27 13:50:00,
2013-04-27 09:51:00,55.1,37.3,30.42,ESE,107,0.0,6.0,51,0.00,,,0.00,Wunderground v.1.15,2013-04-27 13:51:00,
2013-04-27 09:52:00,55.1,37.3,30.42,ESE,115,0.0,6.0,51,0.00,,,0.00,Wunderground v.1.15,2013-04-27 13:52:00,
2013-04-27 09:55:00,55.2,37.4,30.42,ESE,122,0.0,6.0,51,0.00,,,0.00,Wunderground v.1.15,2013-04-27 13:55:00,
2013-04-27 09:56:00,55.3,37.5,30.42,ESE,122,0.0,6.0,51,0.00,,,0.00,Wunderground v.1.15,2013-04-27 13:56:00,
2013-04-27 09:58:00,55.3,37.0,30.42,ENE,74,1.0,6.0,50,0.00,,,0.00,Wunderground v.1.15,2013-04-27 13:58:00,
2013-04-27 10:00:00,55.4,38.1,30.41,ENE,74,0.0,0.0,52,0.00,,,0.00,Wunderground v.1.15,2013-04-27 14:00:00,
2013-04-27 10:01:00,55.5,37.7,30.41,ESE,113,1.0,4.0,51,0.00,,,0.00,Wunderground v.1.15,2013-04-27 14:01:00,
2013-04-27 10:04:00,55.6,37.7,30.41,East,93,1.0,9.0,51,0.00,,,0.00,Wunderground v.1.15,2013-04-27 14:04:00,
2013-04-27 10:05:00,55.7,37.3,30.42,ENE,74,1.0,9.0,50,0.00,,,0.00,Wunderground v.1.15,2013-04-27 14:05:00,
2013-04-27 10:06:00,55.7,37.3,30.42,ESE,112,1.0,9.0,50,0.00,,,0.00,Wunderground v.1.15,2013-04-27 14:06:00,
2013-04-27 10:07:00,55.7,37.8,30.42,ESE,113,1.0,9.0,51,0.00,,,0.00,Wunderground v.1.15,2013-04-27 14:07:00,
2013-04-27 10:09:00,55.8,37.9,30.42,ESE,118,1.0,9.0,51,0.00,,,0.00,Wunderground v.1.15,2013-04-27 14:09:00,
2013-04-27 10:12:00,55.8,37.9,30.42,East,94,1.0,1.0,51,0.00,,,0.00,Wunderground v.1.15,2013-04-27 14:12:00,
2013-04-27 10:14:00,55.9,38.0,30.42,ESE,109,2.0,4.0,51,0.00,,,0.00,Wunderground v.1.15,2013-04-27 14:14:00,
2013-04-27 10:15:00,55.9,37.5,30.42,ESE,114,2.0,4.0,50,0.00,,,0.00,Wunderground v.1.15,2013-04-27 14:15:00,
2013-04-27 10:17:00,55.9,37.5,30.42,ESE,111,1.0,5.0,50,0.00,,,0.00,Wunderground v.1.15,2013-04-27 14:17:00,
2013-04-27 10:18:00,55.9,37.5,30.42,SE,145,2.0,5.0,50,0.00,,,0.00,Wunderground v.1.15,2013-04-27 14:18:00,
2013-04-27 10:19:00,55.9,37.5,30.42,SE,141,2.0,5.0,50,0.00,,,0.00,Wunderground v.1.15,2013-04-27 14:19:00,
2013-04-27 10:20:00,55.9,37.5,30.42,East,94,2.0,2.0,50,0.00,,,0.00,Wunderground v.1.15,2013-04-27 14:20:00,
2013-04-27 10:23:00,56.1,37.7,30.42,ESE,105,1.0,2.0,50,0.00,,,0.00,Wunderground v.1.15,2013-04-27 14:23:00,
2013-04-27 10:25:00,56.1,37.7,30.42,ESE,109,1.0,2.0,50,0.00,,,0.00,Wunderground v.1.15,2013-04-27 14:25:00,
2013-04-27 10:26:00,56.1,37.7,30.42,ESE,119,1.0,2.0,50,0.00,,,0.00,Wunderground v.1.15,2013-04-27 14:26:00,
2013-04-27 10:27:00,56.2,38.3,30.42,ESE,113,1.0,2.0,51,0.00,,,0.00,Wunderground v.1.15,2013-04-27 14:27:00,
2013-04-27 10:29:00,56.4,38.0,30.42,South,177,1.0,2.0,50,0.00,,,0.00,Wunderground v.1.15,2013-04-27 14:29:00,
2013-04-27 10:31:00,56.4,37.5,30.42,ESE,114,1.0,4.0,49,0.00,,,0.00,Wunderground v.1.15,2013-04-27 14:31:00,
2013-04-27 10:33:00,56.2,37.3,30.42,ESE,120,2.0,9.0,49,0.00,,,0.00,Wunderground v.1.15,2013-04-27 14:33:00,
2013-04-27 10:34:00,56.2,37.3,30.42,ESE,104,2.0,9.0,49,0.00,,,0.00,Wunderground v.1.15,2013-04-27 14:34:00,
2013-04-27 10:36:00,56.1,37.2,30.42,ESE,117,2.0,9.0,49,0.00,,,0.00,Wunderground v.1.15,2013-04-27 14:36:00,
2013-04-27 10:38:00,55.9,37.0,30.42,ESE,114,2.0,9.0,49,0.00,,,0.00,Wunderground v.1.15,2013-04-27 14:38:00,
2013-04-27 10:39:00,55.9,37.0,30.42,East,95,2.0,9.0,49,0.00,,,0.00,Wunderground v.1.15,2013-04-27 14:39:00,
2013-04-27 10:41:00,55.8,36.9,30.42,ESE,109,2.0,6.0,49,0.00,,,0.00,Wunderground v.1.15,2013-04-27 14:41:00,
2013-04-27 10:43:00,55.9,38.0,30.42,East,98,2.0,6.0,51,0.00,,,0.00,Wunderground v.1.15,2013-04-27 14:43:00,
2013-04-27 10:45:00,56.1,37.2,30.42,ENE,72,1.0,6.0,49,0.00,,,0.00,Wunderground v.1.15,2013-04-27 14:45:00,
2013-04-27 10:47:00,56.3,37.4,30.42,SE,126,1.0,6.0,49,0.00,,,0.00,Wunderground v.1.15,2013-04-27 14:47:00,
2013-04-27 10:48:00,56.5,37.0,30.42,ESE,111,1.0,6.0,48,0.00,,,0.00,Wunderground v.1.15,2013-04-27 14:48:00,
2013-04-27 10:50:00,56.7,36.7,30.42,ESE,108,1.0,1.0,47,0.00,,,0.00,Wunderground v.1.15,2013-04-27 14:50:00,
2013-04-27 10:52:00,56.9,36.9,30.42,ESE,109,0.0,5.0,47,0.00,,,0.00,Wunderground v.1.15,2013-04-27 14:52:00,
2013-04-27 10:53:00,57.0,36.4,30.42,SE,134,1.0,5.0,46,0.00,,,0.00,Wunderground v.1.15,2013-04-27 14:53:00,
2013-04-27 10:54:00,57.0,37.5,30.42,ENE,61,1.0,5.0,48,0.00,,,0.00,Wunderground v.1.15,2013-04-27 14:54:00,
2013-04-27 10:57:00,57.2,38.2,30.42,East,101,1.0,5.0,49,0.00,,,0.00,Wunderground v.1.15,2013-04-27 14:57:00,
2013-04-27 10:58:00,57.3,36.1,30.42,WSW,240,1.0,5.0,45,0.00,,,0.00,Wunderground v.1.15,2013-04-27 14:58:00,
2013-04-27 11:01:00,57.5,36.9,30.42,SE,126,1.0,8.0,46,0.00,,,0.00,Wunderground v.1.15,2013-04-27 15:01:00,
2013-04-27 11:02:00,57.5,36.3,30.42,East,100,2.0,8.0,45,0.00,,,0.00,Wunderground v.1.15,2013-04-27 15:02:00,
2013-04-27 11:06:00,57.5,37.4,30.42,SE,144,1.0,8.0,47,0.00,,,0.00,Wunderground v.1.15,2013-04-27 15:06:00,
2013-04-27 11:08:00,57.3,37.2,30.42,ENE,75,1.0,8.0,47,0.00,,,0.00,Wunderground v.1.15,2013-04-27 15:08:00,
2013-04-27 11:11:00,57.6,38.6,30.42,East,80,1.0,1.0,49,0.00,,,0.00,Wunderground v.1.15,2013-04-27 15:11:00,
2013-04-27 11:13:00,57.9,37.8,30.42,East,85,1.0,1.0,47,0.00,,,0.00,Wunderground v.1.15,2013-04-27 15:13:00,
2013-04-27 11:14:00,58.1,38.5,30.42,NE,38,1.0,4.0,48,0.00,,,0.00,Wunderground v.1.15,2013-04-27 15:14:00,
2013-04-27 11:19:00,57.8,38.2,30.41,East,96,1.0,7.0,48,0.00,,,0.00,Wunderground v.1.15,2013-04-27 15:19:00,
2013-04-27 11:21:00,57.7,37.6,30.41,East,98,2.0,5.0,47,0.00,,,0.00,Wunderground v.1.15,2013-04-27 15:21:00,
2013-04-27 11:22:00,57.7,37.6,30.41,East,91,2.0,5.0,47,0.00,,,0.00,Wunderground v.1.15,2013-04-27 15:22:00,
2013-04-27 11:24:00,57.7,38.1,30.41,SE,130,2.0,5.0,48,0.00,,,0.00,Wunderground v.1.15,2013-04-27 15:24:00,
2013-04-27 11:27:00,57.9,38.3,30.41,West,267,1.0,5.0,48,0.00,,,0.00,Wunderground v.1.15,2013-04-27 15:27:00,
2013-04-27 11:31:00,58.5,38.3,30.41,SSE,153,0.0,9.0,47,0.00,,,0.00,Wunderground v.1.15,2013-04-27 15:31:00,
2013-04-27 11:32:00,58.6,39.0,30.41,ESE,109,0.0,9.0,48,0.00,,,0.00,Wunderground v.1.15,2013-04-27 15:32:00,
2013-04-27 11:34:00,59.0,38.2,30.41,South,171,0.0,9.0,46,0.00,,,0.00,Wunderground v.1.15,2013-04-27 15:34:00,
2013-04-27 11:36:00,59.0,39.3,30.41,ESE,121,0.0,9.0,48,0.00,,,0.00,Wunderground v.1.15,2013-04-27 15:36:00,
2013-04-27 11:40:00,59.3,37.4,30.41,SSE,166,0.0,0.0,44,0.00,,,0.00,Wunderground v.1.15,2013-04-27 15:40:00,
2013-04-27 11:42:00,59.5,39.8,30.41,ESE,122,0.0,0.0,48,0.00,,,0.00,Wunderground v.1.15,2013-04-27 15:42:00,
2013-04-27 11:43:00,59.7,39.4,30.41,ESE,111,0.0,0.0,47,0.00,,,0.00,Wunderground v.1.15,2013-04-27 15:43:00,
2013-04-27 11:44:00,59.8,39.0,30.41,SSW,196,0.0,0.0,46,0.00,,,0.00,Wunderground v.1.15,2013-04-27 15:44:00,
2013-04-27 11:47:00,59.6,39.3,30.41,East,94,1.0,1.0,47,0.00,,,0.00,Wunderground v.1.15,2013-04-27 15:47:00,
2013-04-27 11:48:00,59.6,39.3,30.41,ENE,76,1.0,4.0,47,0.00,,,0.00,Wunderground v.1.15,2013-04-27 15:48:00,
2013-04-27 11:49:00,59.4,38.6,30.41,ESE,102,1.0,4.0,46,0.00,,,0.00,Wunderground v.1.15,2013-04-27 15:49:00,
2013-04-27 11:50:00,59.3,38.5,30.41,ESE,118,1.0,1.0,46,0.00,,,0.00,Wunderground v.1.15,2013-04-27 15:50:00,
2013-04-27 11:54:00,59.0,38.2,30.41,ESE,123,1.0,1.0,46,0.00,,,0.00,Wunderground v.1.15,2013-04-27 15:54:00,
2013-04-27 11:56:00,58.6,37.9,30.41,ESE,111,1.0,1.0,46,0.00,,,0.00,Wunderground v.1.15,2013-04-27 15:56:00,
2013-04-27 11:57:00,58.6,38.4,30.41,ESE,105,1.0,5.0,47,0.00,,,0.00,Wunderground v.1.15,2013-04-27 15:57:00,
2013-04-27 12:01:00,58.5,38.9,30.40,SE,128,2.0,13.0,48,0.00,,,0.00,Wunderground v.1.15,2013-04-27 16:01:00,
2013-04-27 12:02:00,58.7,40.1,30.40,ESE,115,2.0,13.0,50,0.00,,,0.00,Wunderground v.1.15,2013-04-27 16:02:00,
2013-04-27 12:03:00,59.0,39.3,30.40,ESE,115,2.0,13.0,48,0.00,,,0.00,Wunderground v.1.15,2013-04-27 16:03:00,
2013-04-27 12:04:00,59.0,39.9,30.40,SSW,200,2.0,13.0,49,0.00,,,0.00,Wunderground v.1.15,2013-04-27 16:04:00,
2013-04-27 12:08:00,59.2,39.0,30.41,SW,229,2.0,13.0,47,0.00,,,0.00,Wunderground v.1.15,2013-04-27 16:08:00,
2013-04-27 12:09:00,59.1,39.4,30.41,West,280,1.0,13.0,48,0.00,,,0.00,Wunderground v.1.15,2013-04-27 16:09:00,
2013-04-27 12:10:00,59.2,39.5,30.41,West,275,1.0,1.0,48,0.00,,,0.00,Wunderground v.1.15,2013-04-27 16:10:00,
2013-04-27 12:13:00,59.4,39.7,30.40,SW,236,1.0,1.0,48,0.00,,,0.00,Wunderground v.1.15,2013-04-27 16:13:00,
2013-04-27 12:15:00,59.1,40.5,30.40,WSW,247,0.0,1.0,50,0.00,,,0.00,Wunderground v.1.15,2013-04-27 16:15:00,
2013-04-27 12:16:00,59.0,39.9,30.40,WSW,247,0.0,1.0,49,0.00,,,0.00,Wunderground v.1.15,2013-04-27 16:16:00,
2013-04-27 12:17:00,59.0,39.9,30.40,WSW,246,0.0,1.0,49,0.00,,,0.00,Wunderground v.1.15,2013-04-27 16:17:00,
2013-04-27 12:19:00,59.0,39.9,30.40,WSW,246,0.0,1.0,49,0.00,,,0.00,Wunderground v.1.15,2013-04-27 16:19:00,
2013-04-27 12:22:00,59.5,40.8,30.40,WSW,250,0.0,0.0,50,0.00,,,0.00,Wunderground v.1.15,2013-04-27 16:22:00,
2013-04-27 12:23:00,59.7,40.5,30.40,WNW,287,1.0,3.0,49,0.00,,,0.00,Wunderground v.1.15,2013-04-27 16:23:00,
2013-04-27 12:24:00,59.7,40.5,30.40,WNW,287,1.0,3.0,49,0.00,,,0.00,Wunderground v.1.15,2013-04-27 16:24:00,
2013-04-27 12:26:00,59.9,40.1,30.40,South,183,1.0,4.0,48,0.00,,,0.00,Wunderground v.1.15,2013-04-27 16:26:00,
2013-04-27 12:28:00,60.1,41.9,30.40,ESE,123,1.0,4.0,51,0.00,,,0.00,Wunderground v.1.15,2013-04-27 16:28:00,
2013-04-27 12:29:00,60.1,41.4,30.40,ESE,123,1.0,4.0,50,0.00,,,0.00,Wunderground v.1.15,2013-04-27 16:29:00,
2013-04-27 12:32:00,60.4,40.6,30.39,ESE,114,1.0,8.0,48,0.00,,,0.00,Wunderground v.1.15,2013-04-27 16:32:00,
2013-04-27 12:34:00,60.4,41.1,30.40,South,191,1.0,8.0,49,0.00,,,0.00,Wunderground v.1.15,2013-04-27 16:34:00,
2013-04-27 12:35:00,60.5,41.2,30.39,South,190,1.0,8.0,49,0.00,,,0.00,Wunderground v.1.15,2013-04-27 16:35:00,
2013-04-27 12:39:00,61.1,42.3,30.39,WNW,289,0.0,8.0,50,0.00,,,0.00,Wunderground v.1.15,2013-04-27 16:39:00,
2013-04-27 12:40:00,61.2,43.4,30.39,WNW,286,0.0,0.0,52,0.00,,,0.00,Wunderground v.1.15,2013-04-27 16:40:00,
2013-04-27 12:42:00,61.7,42.3,30.39,WSW,256,0.0,3.0,49,0.00,,,0.00,Wunderground v.1.15,2013-04-27 16:42:00,
2013-04-27 12:45:00,62.0,42.6,30.39,SE,136,1.0,5.0,49,0.00,,,0.00,Wunderground v.1.15,2013-04-27 16:45:00,
2013-04-27 12:46:00,62.0,42.1,30.39,SE,137,1.0,5.0,48,0.00,,,0.00,Wunderground v.1.15,2013-04-27 16:46:00,
2013-04-27 12:47:00,62.0,42.6,30.39,East,79,1.0,5.0,49,0.00,,,0.00,Wunderground v.1.15,2013-04-27 16:47:00,
2013-04-27 12:52:00,62.0,42.6,30.39,ESE,107,1.0,1.0,49,0.00,,,0.00,Wunderground v.1.15,2013-04-27 16:52:00,
2013-04-27 12:55:00,62.2,42.3,30.39,South,178,1.0,5.0,48,0.00,,,0.00,Wunderground v.1.15,2013-04-27 16:55:00,
2013-04-27 12:57:00,62.2,41.7,30.38,NE,38,1.0,5.0,47,0.00,,,0.00,Wunderground v.1.15,2013-04-27 16:57:00,
2013-04-27 13:00:00,61.6,42.2,30.38,ENE,78,1.0,1.0,49,0.00,,,0.00,Wunderground v.1.15,2013-04-27 17:00:00,
2013-04-27 13:01:00,61.5,42.2,30.38,SSE,161,1.0,11.0,49,0.00,,,0.00,Wunderground v.1.15,2013-04-27 17:01:00,
2013-04-27 13:02:00,61.6,42.8,30.38,SSE,151,1.0,11.0,50,0.00,,,0.00,Wunderground v.1.15,2013-04-27 17:02:00,
2013-04-27 13:03:00,61.6,42.2,30.38,SE,142,1.0,11.0,49,0.00,,,0.00,Wunderground v.1.15,2013-04-27 17:03:00,
2013-04-27 13:07:00,61.9,42.0,30.38,SSE,154,1.0,11.0,48,0.00,,,0.00,Wunderground v.1.15,2013-04-27 17:07:00,
2013-04-27 13:08:00,62.0,42.6,30.38,ESE,103,1.0,11.0,49,0.00,,,0.00,Wunderground v.1.15,2013-04-27 17:08:00,
2013-04-27 13:10:00,62.2,41.7,30.37,ESE,119,1.0,1.0,47,0.00,,,0.00,Wunderground v.1.15,2013-04-27 17:10:00,
2013-04-27 13:14:00,62.0,42.6,30.37,NNE,20,1.0,1.0,49,0.00,,,0.00,Wunderground v.1.15,2013-04-27 17:14:00,
2013-04-27 13:15:00,62.1,42.7,30.37,East,96,1.0,1.0,49,0.00,,,0.00,Wunderground v.1.15,2013-04-27 17:15:00,
2013-04-27 13:16:00,62.2,42.8,30.37,South,180,1.0,2.0,49,0.00,,,0.00,Wunderground v.1.15,2013-04-27 17:16:00,
2013-04-27 13:19:00,62.7,42.2,30.37,South,188,0.0,2.0,47,0.00,,,0.00,Wunderground v.1.15,2013-04-27 17:19:00,
2013-04-27 13:20:00,62.7,42.2,30.37,SSE,155,0.0,4.0,47,0.00,,,0.00,Wunderground v.1.15,2013-04-27 17:20:00,
2013-04-27 13:22:00,62.7,42.7,30.36,SSE,149,1.0,4.0,48,0.00,,,0.00,Wunderground v.1.15,2013-04-27 17:22:00,
2013-04-27 13:25:00,62.9,44.0,30.36,West,269,1.0,4.0,50,0.00,,,0.00,Wunderground v.1.15,2013-04-27 17:25:00,
2013-04-27 13:26:00,63.1,43.6,30.36,SE,145,1.0,4.0,49,0.00,,,0.00,Wunderground v.1.15,2013-04-27 17:26:00,
2013-04-27 13:30:00,63.2,43.7,30.36,WSW,249,1.0,1.0,49,0.00,,,0.00,Wunderground v.1.15,2013-04-27 17:30:00,
2013-04-27 13:31:00,63.1,44.2,30.36,East,96,1.0,2.0,50,0.00,,,0.00,Wunderground v.1.15,2013-04-27 17:31:00,
2013-04-27 13:32:00,63.1,43.1,30.36,ESE,110,1.0,6.0,48,0.00,,,0.00,Wunderground v.1.15,2013-04-27 17:32:00,
2013-04-27 13:33:00,63.0,43.5,30.36,East,82,1.0,6.0,49,0.00,,,0.00,Wunderground v.1.15,2013-04-27 17:33:00,
2013-04-27 13:34:00,63.0,43.5,30.36,East,94,2.0,6.0,49,0.00,,,0.00,Wunderground v.1.15,2013-04-27 17:34:00,
2013-04-27 13:37:00,63.1,46.2,30.35,East,96,1.0,6.0,54,0.00,,,0.00,Wunderground v.1.15,2013-04-27 17:37:00,
2013-04-27 13:38:00,63.0,43.0,30.35,ESE,118,1.0,6.0,48,0.00,,,0.00,Wunderground v.1.15,2013-04-27 17:38:00,
2013-04-27 13:39:00,62.9,42.9,30.35,SE,141,2.0,6.0,48,0.00,,,0.00,Wunderground v.1.15,2013-04-27 17:39:00,
2013-04-27 13:43:00,62.9,42.9,30.35,SE,146,2.0,6.0,48,0.00,,,0.00,Wunderground v.1.15,2013-04-27 17:43:00,
2013-04-27 13:44:00,63.0,43.0,30.35,SE,128,2.0,6.0,48,0.00,,,0.00,Wunderground v.1.15,2013-04-27 17:44:00,
2013-04-27 13:45:00,63.0,42.4,30.35,SE,124,2.0,6.0,47,0.00,,,0.00,Wunderground v.1.15,2013-04-27 17:45:00,
2013-04-27 13:47:00,63.3,42.7,30.35,South,173,2.0,6.0,47,0.00,,,0.00,Wunderground v.1.15,2013-04-27 17:47:00,
2013-04-27 13:49:00,63.4,42.2,30.35,South,172,2.0,6.0,46,0.00,,,0.00,Wunderground v.1.15,2013-04-27 17:49:00,
2013-04-27 13:51:00,63.7,43.1,30.35,East,96,2.0,6.0,47,0.00,,,0.00,Wunderground v.1.15,2013-04-27 17:51:00,
2013-04-27 13:53:00,63.9,44.4,30.35,ESE,122,2.0,7.0,49,0.00,,,0.00,Wunderground v.1.15,2013-04-27 17:53:00,
2013-04-27 13:55:00,63.9,42.7,30.35,ESE,109,2.0,7.0,46,0.00,,,0.00,Wunderground v.1.15,2013-04-27 17:55:00,
2013-04-27 13:57:00,63.9,42.7,30.35,ESE,111,2.0,7.0,46,0.00,,,0.00,Wunderground v.1.15,2013-04-27 17:57:00,
2013-04-27 13:58:00,63.8,42.6,30.35,ESE,120,2.0,7.0,46,0.00,,,0.00,Wunderground v.1.15,2013-04-27 17:58:00,
2013-04-27 13:59:00,63.8,42.6,30.35,East,95,2.0,7.0,46,0.00,,,0.00,Wunderground v.1.15,2013-04-27 17:59:00,
2013-04-27 14:00:00,63.8,43.2,30.35,East,96,2.0,2.0,47,0.00,,,0.00,Wunderground v.1.15,2013-04-27 18:00:00,
2013-04-27 14:02:00,63.9,43.8,30.35,NE,49,1.0,7.0,48,0.00,,,0.00,Wunderground v.1.15,2013-04-27 18:02:00,
2013-04-27 14:04:00,64.0,42.8,30.35,ESE,102,1.0,7.0,46,0.00,,,0.00,Wunderground v.1.15,2013-04-27 18:04:00,
2013-04-27 14:06:00,64.0,42.8,30.35,East,85,1.0,7.0,46,0.00,,,0.00,Wunderground v.1.15,2013-04-27 18:06:00,
2013-04-27 14:09:00,64.0,42.8,30.35,East,94,1.0,7.0,46,0.00,,,0.00,Wunderground v.1.15,2013-04-27 18:09:00,
2013-04-27 14:11:00,63.9,41.5,30.35,ESE,113,2.0,5.0,44,0.00,,,0.00,Wunderground v.1.15,2013-04-27 18:11:00,
2013-04-27 14:14:00,63.5,42.3,30.35,SSE,155,2.0,5.0,46,0.00,,,0.00,Wunderground v.1.15,2013-04-27 18:14:00,
2013-04-27 14:16:00,63.6,42.4,30.35,ESE,111,2.0,5.0,46,0.00,,,0.00,Wunderground v.1.15,2013-04-27 18:16:00,
2013-04-27 14:19:00,63.5,42.3,30.35,ESE,103,2.0,7.0,46,0.00,,,0.00,Wunderground v.1.15,2013-04-27 18:19:00,
2013-04-27 14:20:00,63.5,42.9,30.35,ESE,108,2.0,2.0,47,0.00,,,0.00,Wunderground v.1.15,2013-04-27 18:20:00,
2013-04-27 14:21:00,63.6,42.4,30.35,SSE,148,2.0,2.0,46,0.00,,,0.00,Wunderground v.1.15,2013-04-27 18:21:00,
2013-04-27 14:24:00,63.6,42.4,30.35,SW,232,2.0,4.0,46,0.00,,,0.00,Wunderground v.1.15,2013-04-27 18:24:00,
2013-04-27 14:26:00,63.9,42.7,30.35,SE,132,2.0,7.0,46,0.00,,,0.00,Wunderground v.1.15,2013-04-27 18:26:00,
2013-04-27 14:29:00,64.3,43.6,30.35,SE,129,1.0,7.0,47,0.00,,,0.00,Wunderground v.1.15,2013-04-27 18:29:00,
2013-04-27 14:30:00,64.3,43.1,30.34,ESE,105,1.0,1.0,46,0.00,,,0.00,Wunderground v.1.15,2013-04-27 18:30:00,
2013-04-27 14:31:00,64.4,43.2,30.34,ESE,108,1.0,2.0,46,0.00,,,0.00,Wunderground v.1.15,2013-04-27 18:31:00,
2013-04-27 14:32:00,64.5,43.3,30.34,SSE,152,1.0,7.0,46,0.00,,,0.00,Wunderground v.1.15,2013-04-27 18:32:00,
2013-04-27 14:34:00,64.7,42.9,30.34,SSE,149,2.0,10.0,45,0.00,,,0.00,Wunderground v.1.15,2013-04-27 18:34:00,
2013-04-27 14:35:00,64.5,42.1,30.34,East,101,2.0,10.0,44,0.00,,,0.00,Wunderground v.1.15,2013-04-27 18:35:00,
2013-04-27 14:38:00,63.9,42.1,30.34,East,87,3.0,10.0,45,0.00,,,0.00,Wunderground v.1.15,2013-04-27 18:38:00,
2013-04-27 14:42:00,64.0,42.8,30.35,SE,144,3.0,5.0,46,0.00,,,0.00,Wunderground v.1.15,2013-04-27 18:42:00,
2013-04-27 14:43:00,64.0,42.8,30.35,ESE,114,3.0,5.0,46,0.00,,,0.00,Wunderground v.1.15,2013-04-27 18:43:00,
2013-04-27 14:44:00,64.0,42.8,30.34,East,101,3.0,5.0,46,0.00,,,0.00,Wunderground v.1.15,2013-04-27 18:44:00,
2013-04-27 14:45:00,63.9,42.7,30.34,NE,34,2.0,5.0,46,0.00,,,0.00,Wunderground v.1.15,2013-04-27 18:45:00,
2013-04-27 14:46:00,63.8,43.7,30.34,NE,34,1.0,5.0,48,0.00,,,0.00,Wunderground v.1.15,2013-04-27 18:46:00,
2013-04-27 14:48:00,63.7,44.2,30.34,NE,34,1.0,5.0,49,0.00,,,0.00,Wunderground v.1.15,2013-04-27 18:48:00,
2013-04-27 14:49:00,63.6,43.5,30.34,East,92,1.0,5.0,48,0.00,,,0.00,Wunderground v.1.15,2013-04-27 18:49:00,
2013-04-27 14:51:00,63.8,43.2,30.34,ESE,107,1.0,1.0,47,0.00,,,0.00,Wunderground v.1.15,2013-04-27 18:51:00,
2013-04-27 14:53:00,63.9,43.3,30.34,ENE,60,1.0,1.0,47,0.00,,,0.00,Wunderground v.1.15,2013-04-27 18:53:00,
2013-04-27 14:59:00,63.8,42.6,30.34,SE,134,2.0,5.0,46,0.00,,,0.00,Wunderground v.1.15,2013-04-27 18:59:00,
2013-04-27 15:00:00,63.7,43.1,30.34,WSW,237,3.0,3.0,47,0.00,,,0.00,Wunderground v.1.15,2013-04-27 19:00:00,
2013-04-27 15:01:00,63.7,43.6,30.34,West,267,3.0,8.0,48,0.00,,,0.00,Wunderground v.1.15,2013-04-27 19:01:00,
2013-04-27 15:04:00,63.9,43.8,30.34,West,268,2.0,8.0,48,0.00,,,0.00,Wunderground v.1.15,2013-04-27 19:04:00,
2013-04-27 15:07:00,64.1,44.0,30.34,SE,142,1.0,8.0,48,0.00,,,0.00,Wunderground v.1.15,2013-04-27 19:07:00,
2013-04-27 15:08:00,64.1,43.4,30.34,ESE,119,1.0,8.0,47,0.00,,,0.00,Wunderground v.1.15,2013-04-27 19:08:00,
2013-04-27 15:11:00,64.0,43.4,30.33,ESE,115,1.0,1.0,47,0.00,,,0.00,Wunderground v.1.15,2013-04-27 19:11:00,
2013-04-27 15:12:00,64.0,43.4,30.34,SSE,156,1.0,1.0,47,0.00,,,0.00,Wunderground v.1.15,2013-04-27 19:12:00,
2013-04-27 15:14:00,64.2,45.7,30.33,NW,304,1.0,1.0,51,0.00,,,0.00,Wunderground v.1.15,2013-04-27 19:14:00,
2013-04-27 15:16:00,64.3,43.6,30.34,SSE,155,1.0,6.0,47,0.00,,,0.00,Wunderground v.1.15,2013-04-27 19:16:00,
2013-04-27 15:17:00,64.1,43.4,30.34,SSE,168,1.0,6.0,47,0.00,,,0.00,Wunderground v.1.15,2013-04-27 19:17:00,
2013-04-27 15:18:00,63.9,43.3,30.33,SSW,199,2.0,6.0,47,0.00,,,0.00,Wunderground v.1.15,2013-04-27 19:18:00,
2013-04-27 15:19:00,63.7,43.1,30.33,SSE,155,2.0,6.0,47,0.00,,,0.00,Wunderground v.1.15,2013-04-27 19:19:00,
2013-04-27 15:23:00,63.6,43.5,30.33,ESE,117,3.0,7.0,48,0.00,,,0.00,Wunderground v.1.15,2013-04-27 19:23:00,
2013-04-27 15:24:00,63.7,43.6,30.33,ENE,78,3.0,7.0,48,0.00,,,0.00,Wunderground v.1.15,2013-04-27 19:24:00,
2013-04-27 15:25:00,63.8,43.2,30.33,ENE,61,3.0,7.0,47,0.00,,,0.00,Wunderground v.1.15,2013-04-27 19:25:00,
2013-04-27 15:26:00,64.0,43.4,30.33,ESE,117,2.0,7.0,47,0.00,,,0.00,Wunderground v.1.15,2013-04-27 19:26:00,
2013-04-27 15:31:00,64.7,44.0,30.33,East,90,2.0,5.0,47,0.00,,,0.00,Wunderground v.1.15,2013-04-27 19:31:00,
2013-04-27 15:32:00,64.7,43.4,30.33,East,90,2.0,14.0,46,0.00,,,0.00,Wunderground v.1.15,2013-04-27 19:32:00,
2013-04-27 15:33:00,64.6,43.3,30.33,East,97,2.0,14.0,46,0.00,,,0.00,Wunderground v.1.15,2013-04-27 19:33:00,
2013-04-27 15:34:00,64.5,43.3,30.33,East,86,2.0,14.0,46,0.00,,,0.00,Wunderground v.1.15,2013-04-27 19:34:00,
2013-04-27 15:38:00,64.3,44.2,30.33,East,86,2.0,14.0,48,0.00,,,0.00,Wunderground v.1.15,2013-04-27 19:38:00,
2013-04-27 15:40:00,64.3,43.6,30.33,SSE,156,2.0,5.0,47,0.00,,,0.00,Wunderground v.1.15,2013-04-27 19:40:00,
2013-04-27 15:42:00,64.3,43.6,30.33,SSE,168,1.0,5.0,47,0.00,,,0.00,Wunderground v.1.15,2013-04-27 19:42:00,
2013-04-27 15:44:00,64.3,43.1,30.33,WSW,250,1.0,5.0,46,0.00,,,0.00,Wunderground v.1.15,2013-04-27 19:44:00,
2013-04-27 15:45:00,64.3,44.2,30.33,WSW,250,1.0,5.0,48,0.00,,,0.00,Wunderground v.1.15,2013-04-27 19:45:00,
2013-04-27 15:49:00,64.5,44.9,30.33,ESE,119,1.0,6.0,49,0.00,,,0.00,Wunderground v.1.15,2013-04-27 19:49:00,
2013-04-27 15:50:00,64.6,43.9,30.33,South,174,1.0,1.0,47,0.00,,,0.00,Wunderground v.1.15,2013-04-27 19:50:00,
2013-04-27 15:51:00,64.7,43.4,30.32,SE,138,1.0,1.0,46,0.00,,,0.00,Wunderground v.1.15,2013-04-27 19:51:00,
2013-04-27 15:52:00,64.7,43.4,30.32,SE,139,0.0,1.0,46,0.00,,,0.00,Wunderground v.1.15,2013-04-27 19:52:00,
2013-04-27 15:54:00,64.8,44.6,30.32,NE,42,0.0,1.0,48,0.00,,,0.00,Wunderground v.1.15,2013-04-27 19:54:00,
2013-04-27 15:56:00,64.8,44.6,30.32,East,88,1.0,1.0,48,0.00,,,0.00,Wunderground v.1.15,2013-04-27 19:56:00,
2013-04-27 15:57:00,64.7,43.4,30.32,East,91,1.0,1.0,46,0.00,,,0.00,Wunderground v.1.15,2013-04-27 19:57:00,
2013-04-27 15:59:00,64.8,44.1,30.32,East,84,0.0,4.0,47,0.00,,,0.00,Wunderground v.1.15,2013-04-27 19:59:00,
2013-04-27 16:02:00,65.0,43.7,30.32,SSE,147,1.0,8.0,46,0.00,,,0.00,Wunderground v.1.15,2013-04-27 20:02:00,
2013-04-27 16:04:00,65.0,44.3,30.32,East,84,1.0,8.0,47,0.00,,,0.00,Wunderground v.1.15,2013-04-27 20:04:00,
2013-04-27 16:05:00,65.1,44.4,30.32,East,86,1.0,8.0,47,0.00,,,0.00,Wunderground v.1.15,2013-04-27 20:05:00,
2013-04-27 16:07:00,65.3,44.0,30.32,East,84,1.0,8.0,46,0.00,,,0.00,Wunderground v.1.15,2013-04-27 20:07:00,
2013-04-27 16:09:00,65.4,44.6,30.32,NE,56,1.0,8.0,47,0.00,,,0.00,Wunderground v.1.15,2013-04-27 20:09:00,
2013-04-27 16:10:00,65.6,45.4,30.32,NNW,337,1.0,1.0,48,0.00,,,0.00,Wunderground v.1.15,2013-04-27 20:10:00,
2013-04-27 16:12:00,65.7,44.3,30.31,ENE,74,1.0,4.0,46,0.00,,,0.00,Wunderground v.1.15,2013-04-27 20:12:00,
2013-04-27 16:15:00,65.7,44.9,30.31,SE,133,1.0,4.0,47,0.00,,,0.00,Wunderground v.1.15,2013-04-27 20:15:00,
2013-04-27 16:16:00,65.8,45.0,30.31,East,92,1.0,4.0,47,0.00,,,0.00,Wunderground v.1.15,2013-04-27 20:16:00,
2013-04-27 16:17:00,65.7,44.3,30.31,East,96,1.0,4.0,46,0.00,,,0.00,Wunderground v.1.15,2013-04-27 20:17:00,
2013-04-27 16:19:00,65.9,45.6,30.31,East,101,1.0,4.0,48,0.00,,,0.00,Wunderground v.1.15,2013-04-27 20:19:00,
2013-04-27 16:24:00,66.0,44.6,30.31,WSW,248,1.0,2.0,46,0.00,,,0.00,Wunderground v.1.15,2013-04-27 20:24:00,
2013-04-27 16:25:00,65.8,43.9,30.31,East,95,1.0,6.0,45,0.00,,,0.00,Wunderground v.1.15,2013-04-27 20:25:00,
2013-04-27 16:28:00,65.4,44.6,30.31,West,277,1.0,6.0,47,0.00,,,0.00,Wunderground v.1.15,2013-04-27 20:28:00,
2013-04-27 16:29:00,65.4,44.6,30.31,West,277,1.0,6.0,47,0.00,,,0.00,Wunderground v.1.15,2013-04-27 20:29:00,
2013-04-27 16:32:00,65.4,44.6,30.31,WNW,282,1.0,8.0,47,0.00,,,0.00,Wunderground v.1.15,2013-04-27 20:32:00,
2013-04-27 16:33:00,65.4,44.6,30.31,ESE,118,1.0,12.0,47,0.00,,,0.00,Wunderground v.1.15,2013-04-27 20:33:00,
2013-04-27 16:34:00,65.4,44.6,30.31,ESE,119,1.0,12.0,47,0.00,,,0.00,Wunderground v.1.15,2013-04-27 20:34:00,
2013-04-27 16:37:00,65.1,44.9,30.31,SSW,194,1.0,12.0,48,0.00,,,0.00,Wunderground v.1.15,2013-04-27 20:37:00,
2013-04-27 16:40:00,65.2,45.0,30.31,SW,229,1.0,5.0,48,0.00,,,0.00,Wunderground v.1.15,2013-04-27 20:40:00,
2013-04-27 16:41:00,65.2,44.5,30.31,SW,225,1.0,5.0,47,0.00,,,0.00,Wunderground v.1.15,2013-04-27 20:41:00,
2013-04-27 16:43:00,65.3,44.0,30.31,WSW,245,1.0,5.0,46,0.00,,,0.00,Wunderground v.1.15,2013-04-27 20:43:00,
2013-04-27 16:44:00,65.3,43.4,30.31,WSW,246,1.0,5.0,45,0.00,,,0.00,Wunderground v.1.15,2013-04-27 20:44:00,
2013-04-27 16:47:00,65.5,43.6,30.31,SSE,159,1.0,5.0,45,0.00,,,0.00,Wunderground v.1.15,2013-04-27 20:47:00,
2013-04-27 16:49:00,65.4,43.5,30.31,SSW,199,1.0,5.0,45,0.00,,,0.00,Wunderground v.1.15,2013-04-27 20:49:00,
2013-04-27 16:51:00,65.2,43.3,30.31,SSE,163,1.0,1.0,45,0.00,,,0.00,Wunderground v.1.15,2013-04-27 20:51:00,
2013-04-27 16:53:00,64.9,43.6,30.31,SE,125,1.0,1.0,46,0.00,,,0.00,Wunderground v.1.15,2013-04-27 20:53:00,
2013-04-27 16:56:00,64.9,43.0,30.31,ESE,103,1.0,1.0,45,0.00,,,0.00,Wunderground v.1.15,2013-04-27 20:56:00,
2013-04-27 16:57:00,65.0,43.1,30.31,ESE,109,1.0,1.0,45,0.00,,,0.00,Wunderground v.1.15,2013-04-27 20:57:00,
2013-04-27 16:58:00,65.2,44.5,30.31,ESE,109,1.0,1.0,47,0.00,,,0.00,Wunderground v.1.15,2013-04-27 20:58:00,
2013-04-27 17:00:00,65.3,42.8,30.31,East,96,1.0,4.0,44,0.00,,,0.00,Wunderground v.1.15,2013-04-27 21:00:00,
2013-04-27 17:04:00,65.3,43.4,30.31,South,175,1.0,9.0,45,0.00,,,0.00,Wunderground v.1.15,2013-04-27 21:04:00,
2013-04-27 17:05:00,65.4,43.5,30.31,South,171,1.0,9.0,45,0.00,,,0.00,Wunderground v.1.15,2013-04-27 21:05:00,
2013-04-27 17:06:00,65.4,42.9,30.30,East,98,1.0,9.0,44,0.00,,,0.00,Wunderground v.1.15,2013-04-27 21:06:00,
2013-04-27 17:09:00,65.6,44.3,30.31,ESE,113,1.0,9.0,46,0.00,,,0.00,Wunderground v.1.15,2013-04-27 21:09:00,
2013-04-27 17:11:00,65.5,43.0,30.30,ESE,117,1.0,1.0,44,0.00,,,0.00,Wunderground v.1.15,2013-04-27 21:11:00,
2013-04-27 17:14:00,65.8,45.6,30.31,ESE,117,1.0,1.0,48,0.00,,,0.00,Wunderground v.1.15,2013-04-27 21:14:00,
2013-04-27 17:15:00,65.9,44.5,30.30,ENE,78,1.0,3.0,46,0.00,,,0.00,Wunderground v.1.15,2013-04-27 21:15:00,
2013-04-27 17:17:00,65.8,43.3,30.31,East,95,1.0,3.0,44,0.00,,,0.00,Wunderground v.1.15,2013-04-27 21:17:00,
2013-04-27 17:19:00,65.6,43.1,30.30,SE,129,1.0,4.0,44,0.00,,,0.00,Wunderground v.1.15,2013-04-27 21:19:00,
2013-04-27 17:20:00,65.5,43.0,30.30,SE,130,1.0,1.0,44,0.00,,,0.00,Wunderground v.1.15,2013-04-27 21:20:00,
2013-04-27 17:22:00,65.4,42.9,30.31,SE,130,1.0,1.0,44,0.00,,,0.00,Wunderground v.1.15,2013-04-27 21:22:00,
2013-04-27 17:24:00,65.4,42.3,30.31,SW,236,1.0,1.0,43,0.00,,,0.00,Wunderground v.1.15,2013-04-27 21:24:00,
2013-04-27 17:25:00,65.3,42.8,30.31,South,181,1.0,1.0,44,0.00,,,0.00,Wunderground v.1.15,2013-04-27 21:25:00,
2013-04-27 17:26:00,65.3,42.8,30.30,ESE,111,1.0,1.0,44,0.00,,,0.00,Wunderground v.1.15,2013-04-27 21:26:00,
2013-04-27 17:31:00,65.1,42.6,30.31,South,179,1.0,13.0,44,0.00,,,0.00,Wunderground v.1.15,2013-04-27 21:31:00,
2013-04-27 17:32:00,65.1,43.2,30.30,South,190,1.0,13.0,45,0.00,,,0.00,Wunderground v.1.15,2013-04-27 21:32:00,
2013-04-27 17:34:00,65.1,42.6,30.30,SW,232,1.0,13.0,44,0.00,,,0.00,Wunderground v.1.15,2013-04-27 21:34:00,
2013-04-27 17:37:00,65.2,42.7,30.30,SW,230,0.0,13.0,44,0.00,,,0.00,Wunderground v.1.15,2013-04-27 21:37:00,
2013-04-27 17:38:00,65.2,42.1,30.30,SW,229,0.0,13.0,43,0.00,,,0.00,Wunderground v.1.15,2013-04-27 21:38:00,
2013-04-27 17:40:00,65.2,43.3,30.30,SW,232,0.0,0.0,45,0.00,,,0.00,Wunderground v.1.15,2013-04-27 21:40:00,
2013-04-27 17:43:00,65.3,42.8,30.30,SE,133,0.0,5.0,44,0.00,,,0.00,Wunderground v.1.15,2013-04-27 21:43:00,
2013-04-27 17:44:00,65.2,42.7,30.30,SE,135,1.0,5.0,44,0.00,,,0.00,Wunderground v.1.15,2013-04-27 21:44:00,
2013-04-27 17:46:00,64.8,42.4,30.30,SE,129,1.0,5.0,44,0.00,,,0.00,Wunderground v.1.15,2013-04-27 21:46:00,
2013-04-27 17:48:00,64.5,42.1,30.30,SE,124,1.0,5.0,44,0.00,,,0.00,Wunderground v.1.15,2013-04-27 21:48:00,
2013-04-27 17:50:00,64.5,42.7,30.30,SE,124,1.0,1.0,45,0.00,,,0.00,Wunderground v.1.15,2013-04-27 21:50:00,
2013-04-27 17:52:00,64.5,42.7,30.31,ESE,123,1.0,1.0,45,0.00,,,0.00,Wunderground v.1.15,2013-04-27 21:52:00,
2013-04-27 17:53:00,64.7,43.4,30.30,South,187,1.0,1.0,46,0.00,,,0.00,Wunderground v.1.15,2013-04-27 21:53:00,
2013-04-27 17:55:00,64.7,42.9,30.30,ESE,110,1.0,1.0,45,0.00,,,0.00,Wunderground v.1.15,2013-04-27 21:55:00,
2013-04-27 17:56:00,64.7,42.3,30.31,ESE,107,0.0,1.0,44,0.00,,,0.00,Wunderground v.1.15,2013-04-27 21:56:00,
2013-04-27 17:57:00,64.5,42.1,30.30,ESE,108,0.0,1.0,44,0.00,,,0.00,Wunderground v.1.15,2013-04-27 21:57:00,
2013-04-27 17:58:00,64.4,42.0,30.30,ESE,107,0.0,1.0,44,0.00,,,0.00,Wunderground v.1.15,2013-04-27 21:58:00,
2013-04-27 17:59:00,64.4,42.0,30.30,ESE,107,0.0,1.0,44,0.00,,,0.00,Wunderground v.1.15,2013-04-27 21:59:00,
2013-04-27 18:00:00,64.5,42.7,30.31,ESE,107,0.0,0.0,45,0.00,,,0.00,Wunderground v.1.15,2013-04-27 22:00:00,
2013-04-27 18:03:00,64.7,42.9,30.30,SE,141,0.0,14.0,45,0.00,,,0.00,Wunderground v.1.15,2013-04-27 22:03:00,
2013-04-27 18:04:00,64.8,42.9,30.30,SSE,161,0.0,14.0,45,0.00,,,0.00,Wunderground v.1.15,2013-04-27 22:04:00,
2013-04-27 18:05:00,64.9,43.0,30.30,WSW,242,0.0,14.0,45,0.00,,,0.00,Wunderground v.1.15,2013-04-27 22:05:00,
2013-04-27 18:07:00,65.0,43.1,30.30,WSW,242,0.0,14.0,45,0.00,,,0.00,Wunderground v.1.15,2013-04-27 22:07:00,
2013-04-27 18:09:00,65.0,42.5,30.30,West,271,0.0,14.0,44,0.00,,,0.00,Wunderground v.1.15,2013-04-27 22:09:00,
2013-04-27 18:11:00,64.9,42.5,30.30,SW,217,0.0,3.0,44,0.00,,,0.00,Wunderground v.1.15,2013-04-27 22:11:00,
2013-04-27 18:12:00,64.8,42.4,30.30,SSE,153,0.0,4.0,44,0.00,,,0.00,Wunderground v.1.15,2013-04-27 22:12:00,
2013-04-27 18:13:00,64.6,42.2,30.30,WSW,244,0.0,4.0,44,0.00,,,0.00,Wunderground v.1.15,2013-04-27 22:13:00,
2013-04-27 18:14:00,64.5,42.7,30.30,WSW,244,1.0,4.0,45,0.00,,,0.00,Wunderground v.1.15,2013-04-27 22:14:00,
2013-04-27 18:19:00,64.0,41.0,30.30,ESE,114,1.0,4.0,43,0.00,,,0.00,Wunderground v.1.15,2013-04-27 22:19:00,
2013-04-27 18:20:00,63.9,41.5,30.30,ESE,114,1.0,1.0,44,0.00,,,0.00,Wunderground v.1.15,2013-04-27 22:20:00,
2013-04-27 18:21:00,63.9,41.5,30.30,ESE,113,1.0,1.0,44,0.00,,,0.00,Wunderground v.1.15,2013-04-27 22:21:00,
2013-04-27 18:22:00,63.9,42.1,30.30,ESE,113,1.0,1.0,45,0.00,,,0.00,Wunderground v.1.15,2013-04-27 22:22:00,
2013-04-27 18:24:00,64.0,42.2,30.30,ESE,113,0.0,1.0,45,0.00,,,0.00,Wunderground v.1.15,2013-04-27 22:24:00,
2013-04-27 18:26:00,64.0,41.6,30.30,ESE,113,0.0,1.0,44,0.00,,,0.00,Wunderground v.1.15,2013-04-27 22:26:00,
2013-04-27 18:28:00,64.0,41.6,30.30,SSE,161,0.0,1.0,44,0.00,,,0.00,Wunderground v.1.15,2013-04-27 22:28:00,
2013-04-27 18:29:00,64.0,42.2,30.30,South,170,0.0,1.0,45,0.00,,,0.00,Wunderground v.1.15,2013-04-27 22:29:00,
2013-04-27 18:30:00,64.1,42.3,30.30,South,172,0.0,0.0,45,0.00,,,0.00,Wunderground v.1.15,2013-04-27 22:30:00,
2013-04-27 18:34:00,64.2,42.4,30.30,South,172,0.0,8.0,45,0.00,,,0.00,Wunderground v.1.15,2013-04-27 22:34:00,
2013-04-27 18:36:00,64.3,41.9,30.30,SE,129,0.0,8.0,44,0.00,,,0.00,Wunderground v.1.15,2013-04-27 22:36:00,
2013-04-27 18:38:00,64.1,41.7,30.30,SE,125,0.0,8.0,44,0.00,,,0.00,Wunderground v.1.15,2013-04-27 22:38:00,
2013-04-27 18:41:00,63.8,42.0,30.30,SSE,153,1.0,6.0,45,0.00,,,0.00,Wunderground v.1.15,2013-04-27 22:41:00,
2013-04-27 18:42:00,63.6,41.9,30.30,ESE,123,1.0,6.0,45,0.00,,,0.00,Wunderground v.1.15,2013-04-27 22:42:00,
2013-04-27 18:43:00,63.4,41.7,30.30,SE,128,1.0,6.0,45,0.00,,,0.00,Wunderground v.1.15,2013-04-27 22:43:00,
2013-04-27 18:46:00,63.2,41.5,30.30,SSE,150,1.0,8.0,45,0.00,,,0.00,Wunderground v.1.15,2013-04-27 22:46:00,
2013-04-27 18:47:00,63.1,41.4,30.30,SSE,149,1.0,8.0,45,0.00,,,0.00,Wunderground v.1.15,2013-04-27 22:47:00,
2013-04-27 18:49:00,63.1,41.4,30.30,SSE,149,1.0,8.0,45,0.00,,,0.00,Wunderground v.1.15,2013-04-27 22:49:00,
2013-04-27 18:50:00,63.1,41.4,30.30,SE,143,1.0,1.0,45,0.00,,,0.00,Wunderground v.1.15,2013-04-27 22:50:00,
2013-04-27 18:53:00,63.1,41.4,30.30,ESE,122,1.0,1.0,45,0.00,,,0.00,Wunderground v.1.15,2013-04-27 22:53:00,
2013-04-27 18:54:00,63.1,41.4,30.30,ESE,123,1.0,1.0,45,0.00,,,0.00,Wunderground v.1.15,2013-04-27 22:54:00,
2013-04-27 18:56:00,63.2,41.5,30.30,SE,132,0.0,1.0,45,0.00,,,0.00,Wunderground v.1.15,2013-04-27 22:56:00,
2013-04-27 18:57:00,63.2,41.5,30.30,SE,132,0.0,1.0,45,0.00,,,0.00,Wunderground v.1.15,2013-04-27 22:57:00,
2013-04-27 18:59:00,63.2,41.5,30.30,SE,132,0.0,1.0,45,0.00,,,0.00,Wunderground v.1.15,2013-04-27 22:59:00,
2013-04-27 19:02:00,63.1,41.4,30.30,SE,130,0.0,8.0,45,0.00,,,0.00,Wunderground v.1.15,2013-04-27 23:02:00,
2013-04-27 19:04:00,63.1,41.4,30.30,SE,130,0.0,8.0,45,0.00,,,0.00,Wunderground v.1.15,2013-04-27 23:04:00,
2013-04-27 19:06:00,62.9,41.2,30.29,SE,126,0.0,8.0,45,0.00,,,0.00,Wunderground v.1.15,2013-04-27 23:06:00,
2013-04-27 19:07:00,62.8,41.1,30.29,SE,126,0.0,8.0,45,0.00,,,0.00,Wunderground v.1.15,2013-04-27 23:07:00,
2013-04-27 19:11:00,62.5,41.4,30.29,SE,125,0.0,1.0,46,0.00,,,0.00,Wunderground v.1.15,2013-04-27 23:11:00,
2013-04-27 19:13:00,62.3,41.2,30.29,SE,125,0.0,1.0,46,0.00,,,0.00,Wunderground v.1.15,2013-04-27 23:13:00,
2013-04-27 19:15:00,62.2,41.2,30.29,SE,125,0.0,1.0,46,0.00,,,0.00,Wunderground v.1.15,2013-04-27 23:15:00,
2013-04-27 19:19:00,62.1,41.6,30.29,SE,125,0.0,1.0,47,0.00,,,0.00,Wunderground v.1.15,2013-04-27 23:19:00,
2013-04-27 19:22:00,62.1,41.6,30.29,SE,125,0.0,0.0,47,0.00,,,0.00,Wunderground v.1.15,2013-04-27 23:22:00,
2013-04-27 19:26:00,62.0,41.5,30.29,SE,125,0.0,0.0,47,0.00,,,0.00,Wunderground v.1.15,2013-04-27 23:26:00,
2013-04-27 19:27:00,61.9,41.4,30.29,SE,125,0.0,0.0,47,0.00,,,0.00,Wunderground v.1.15,2013-04-27 23:27:00,
2013-04-27 19:30:00,61.8,41.3,30.29,SE,125,0.0,0.0,47,0.00,,,0.00,Wunderground v.1.15,2013-04-27 23:30:00,
2013-04-27 19:32:00,61.7,41.3,30.29,SE,125,0.0,8.0,47,0.00,,,0.00,Wunderground v.1.15,2013-04-27 23:32:00,
2013-04-27 19:34:00,61.6,41.2,30.29,SE,125,0.0,8.0,47,0.00,,,0.00,Wunderground v.1.15,2013-04-27 23:34:00,
2013-04-27 19:35:00,61.5,41.6,30.29,SE,125,0.0,8.0,48,0.00,,,0.00,Wunderground v.1.15,2013-04-27 23:35:00,
2013-04-27 19:36:00,61.4,41.5,30.29,SE,125,0.0,8.0,48,0.00,,,0.00,Wunderground v.1.15,2013-04-27 23:36:00,
2013-04-27 19:39:00,61.3,41.4,30.29,SE,125,0.0,8.0,48,0.00,,,0.00,Wunderground v.1.15,2013-04-27 23:39:00,
2013-04-27 19:40:00,61.2,41.3,30.29,SE,125,0.0,0.0,48,0.00,,,0.00,Wunderground v.1.15,2013-04-27 23:40:00,
2013-04-27 19:42:00,61.1,41.8,30.29,SE,125,0.0,0.0,49,0.00,,,0.00,Wunderground v.1.15,2013-04-27 23:42:00,
2013-04-27 19:46:00,60.8,42.0,30.29,SE,124,0.0,1.0,50,0.00,,,0.00,Wunderground v.1.15,2013-04-27 23:46:00,
2013-04-27 19:47:00,60.7,41.4,30.29,SE,125,0.0,4.0,49,0.00,,,0.00,Wunderground v.1.15,2013-04-27 23:47:00,
2013-04-27 19:50:00,60.4,41.1,30.29,SE,125,0.0,0.0,49,0.00,,,0.00,Wunderground v.1.15,2013-04-27 23:50:00,
2013-04-27 19:51:00,60.3,42.1,30.29,SE,125,0.0,0.0,51,0.00,,,0.00,Wunderground v.1.15,2013-04-27 23:51:00,
2013-04-27 19:53:00,60.0,41.3,30.29,SE,125,0.0,0.0,50,0.00,,,0.00,Wunderground v.1.15,2013-04-27 23:53:00,
2013-04-27 19:55:00,59.8,41.6,30.29,SE,125,0.0,0.0,51,0.00,,,0.00,Wunderground v.1.15,2013-04-27 23:55:00,
2013-04-27 19:57:00,59.6,41.4,30.29,SE,125,0.0,0.0,51,0.00,,,0.00,Wunderground v.1.15,2013-04-27 23:57:00,
2013-04-27 19:58:00,59.5,41.3,30.29,SE,125,0.0,1.0,51,0.00,,,0.00,Wunderground v.1.15,2013-04-27 23:58:00,
2013-04-27 20:01:00,59.0,41.4,30.29,SE,125,0.0,1.0,52,0.00,,,0.00,Wunderground v.1.15,2013-04-28 00:01:00,
2013-04-27 20:04:00,59.0,41.4,30.29,ESE,123,0.0,1.0,52,0.00,,,0.00,Wunderground v.1.15,2013-04-28 00:04:00,
2013-04-27 20:05:00,59.0,41.4,30.29,ESE,123,0.0,1.0,52,0.00,,,0.00,Wunderground v.1.15,2013-04-28 00:05:00,
2013-04-27 20:06:00,58.9,41.3,30.29,ESE,123,0.0,1.0,52,0.00,,,0.00,Wunderground v.1.15,2013-04-28 00:06:00,
2013-04-27 20:09:00,58.5,40.9,30.29,ESE,123,0.0,1.0,52,0.00,,,0.00,Wunderground v.1.15,2013-04-28 00:09:00,
2013-04-27 20:11:00,58.3,41.2,30.29,ESE,123,0.0,0.0,53,0.00,,,0.00,Wunderground v.1.15,2013-04-28 00:11:00,
2013-04-27 20:14:00,58.0,41.0,30.29,ESE,123,0.0,0.0,53,0.00,,,0.00,Wunderground v.1.15,2013-04-28 00:14:00,
2013-04-27 20:15:00,57.9,40.9,30.29,ESE,123,0.0,0.0,53,0.00,,,0.00,Wunderground v.1.15,2013-04-28 00:15:00,
2013-04-27 20:16:00,57.8,41.3,30.29,ESE,123,0.0,0.0,54,0.00,,,0.00,Wunderground v.1.15,2013-04-28 00:16:00,
2013-04-27 20:19:00,57.5,41.0,30.29,ESE,123,0.0,0.0,54,0.00,,,0.00,Wunderground v.1.15,2013-04-28 00:19:00,
2013-04-27 20:20:00,57.4,40.9,30.29,ESE,123,0.0,0.0,54,0.00,,,0.00,Wunderground v.1.15,2013-04-28 00:20:00,
2013-04-27 20:22:00,57.3,40.8,30.29,ESE,123,0.0,0.0,54,0.00,,,0.00,Wunderground v.1.15,2013-04-28 00:22:00,
2013-04-27 20:23:00,57.3,40.8,30.29,ESE,123,0.0,0.0,54,0.00,,,0.00,Wunderground v.1.15,2013-04-28 00:23:00,
2013-04-27 20:27:00,57.1,40.6,30.29,ESE,123,0.0,0.0,54,0.00,,,0.00,Wunderground v.1.15,2013-04-28 00:27:00,
2013-04-27 20:29:00,57.2,40.7,30.29,ESE,123,0.0,0.0,54,0.00,,,0.00,Wunderground v.1.15,2013-04-28 00:29:00,
2013-04-27 20:34:00,57.4,40.9,30.29,ESE,123,0.0,4.0,54,0.00,,,0.00,Wunderground v.1.15,2013-04-28 00:34:00,
2013-04-27 20:35:00,57.5,41.0,30.29,ESE,122,0.0,4.0,54,0.00,,,0.00,Wunderground v.1.15,2013-04-28 00:35:00,
2013-04-27 20:36:00,57.5,40.5,30.29,ESE,123,0.0,4.0,53,0.00,,,0.00,Wunderground v.1.15,2013-04-28 00:36:00,
2013-04-27 20:40:00,57.5,40.5,30.29,ESE,117,1.0,1.0,53,0.00,,,0.00,Wunderground v.1.15,2013-04-28 00:40:00,
2013-04-27 20:41:00,57.5,40.5,30.29,ESE,117,1.0,1.0,53,0.00,,,0.00,Wunderground v.1.15,2013-04-28 00:41:00,
2013-04-27 20:42:00,57.4,40.9,30.29,ESE,103,1.0,1.0,54,0.00,,,0.00,Wunderground v.1.15,2013-04-28 00:42:00,
2013-04-27 20:46:00,57.1,40.6,30.29,ESE,105,0.0,1.0,54,0.00,,,0.00,Wunderground v.1.15,2013-04-28 00:46:00,
2013-04-27 20:47:00,57.0,40.5,30.29,ESE,105,0.0,1.0,54,0.00,,,0.00,Wunderground v.1.15,2013-04-28 00:47:00,
2013-04-27 20:49:00,56.9,39.9,30.29,ESE,103,0.0,5.0,53,0.00,,,0.00,Wunderground v.1.15,2013-04-28 00:49:00,
2013-04-27 20:53:00,56.7,40.2,30.29,ESE,103,0.0,0.0,54,0.00,,,0.00,Wunderground v.1.15,2013-04-28 00:53:00,
2013-04-27 20:54:00,56.5,40.0,30.29,ESE,103,0.0,0.0,54,0.00,,,0.00,Wunderground v.1.15,2013-04-28 00:54:00,
2013-04-27 20:55:00,56.4,40.0,30.29,ESE,103,0.0,0.0,54,0.00,,,0.00,Wunderground v.1.15,2013-04-28 00:55:00,
2013-04-27 20:59:00,56.3,39.9,30.29,ESE,104,1.0,5.0,54,0.00,,,0.00,Wunderground v.1.15,2013-04-28 00:59:00,
2013-04-27 21:00:00,56.4,40.0,30.29,ESE,105,0.0,0.0,54,0.00,,,0.00,Wunderground v.1.15,2013-04-28 01:00:00,
2013-04-27 21:03:00,56.4,40.0,30.29,ESE,117,1.0,4.0,54,0.00,,,0.00,Wunderground v.1.15,2013-04-28 01:03:00,
2013-04-27 21:05:00,56.3,39.9,30.29,ESE,115,1.0,4.0,54,0.00,,,0.00,Wunderground v.1.15,2013-04-28 01:05:00,
2013-04-27 21:06:00,56.2,39.8,30.29,East,98,1.0,4.0,54,0.00,,,0.00,Wunderground v.1.15,2013-04-28 01:06:00,
2013-04-27 21:07:00,56.2,39.3,30.29,East,101,0.0,4.0,53,0.00,,,0.00,Wunderground v.1.15,2013-04-28 01:07:00,
2013-04-27 21:11:00,56.4,39.5,30.29,ESE,118,1.0,6.0,53,0.00,,,0.00,Wunderground v.1.15,2013-04-28 01:11:00,
2013-04-27 21:12:00,56.4,39.5,30.29,ESE,103,1.0,6.0,53,0.00,,,0.00,Wunderground v.1.15,2013-04-28 01:12:00,
2013-04-27 21:13:00,56.4,39.5,30.29,ESE,113,1.0,6.0,53,0.00,,,0.00,Wunderground v.1.15,2013-04-28 01:13:00,
2013-04-27 21:17:00,56.5,39.6,30.29,ESE,122,2.0,6.0,53,0.00,,,0.00,Wunderground v.1.15,2013-04-28 01:17:00,
2013-04-27 21:18:00,56.4,39.5,30.29,ESE,109,2.0,6.0,53,0.00,,,0.00,Wunderground v.1.15,2013-04-28 01:18:00,
2013-04-27 21:19:00,56.4,39.5,30.29,ESE,109,2.0,6.0,53,0.00,,,0.00,Wunderground v.1.15,2013-04-28 01:19:00,
2013-04-27 21:20:00,56.4,39.5,30.29,ESE,117,2.0,2.0,53,0.00,,,0.00,Wunderground v.1.15,2013-04-28 01:20:00,
2013-04-27 21:25:00,56.1,39.2,30.29,ESE,102,2.0,4.0,53,0.00,,,0.00,Wunderground v.1.15,2013-04-28 01:25:00,
2013-04-27 21:26:00,56.1,39.2,30.29,SE,131,2.0,4.0,53,0.00,,,0.00,Wunderground v.1.15,2013-04-28 01:26:00,
2013-04-27 21:28:00,56.0,39.6,30.29,SE,142,2.0,5.0,54,0.00,,,0.00,Wunderground v.1.15,2013-04-28 01:28:00,
2013-04-27 21:29:00,55.9,39.5,30.29,East,96,2.0,5.0,54,0.00,,,0.00,Wunderground v.1.15,2013-04-28 01:29:00,
2013-04-27 21:31:00,55.9,39.5,30.30,ESE,105,2.0,5.0,54,0.00,,,0.00,Wunderground v.1.15,2013-04-28 01:31:00,
2013-04-27 21:34:00,55.7,39.3,30.30,ESE,115,1.0,5.0,54,0.00,,,0.00,Wunderground v.1.15,2013-04-28 01:34:00,
2013-04-27 21:36:00,55.6,39.2,30.29,SE,133,1.0,5.0,54,0.00,,,0.00,Wunderground v.1.15,2013-04-28 01:36:00,
2013-04-27 21:37:00,55.5,39.1,30.30,SSE,162,1.0,5.0,54,0.00,,,0.00,Wunderground v.1.15,2013-04-28 01:37:00,
2013-04-27 21:40:00,55.4,39.0,30.30,East,92,2.0,2.0,54,0.00,,,0.00,Wunderground v.1.15,2013-04-28 01:40:00,
2013-04-27 21:41:00,55.4,39.0,30.30,ESE,104,2.0,2.0,54,0.00,,,0.00,Wunderground v.1.15,2013-04-28 01:41:00,
2013-04-27 21:42:00,55.4,39.5,30.30,ESE,105,2.0,2.0,55,0.00,,,0.00,Wunderground v.1.15,2013-04-28 01:42:00,
2013-04-27 21:46:00,55.3,38.9,30.30,ESE,118,1.0,2.0,54,0.00,,,0.00,Wunderground v.1.15,2013-04-28 01:46:00,
2013-04-27 21:47:00,55.3,38.9,30.30,SE,136,1.0,2.0,54,0.00,,,0.00,Wunderground v.1.15,2013-04-28 01:47:00,
2013-04-27 21:49:00,55.3,38.9,30.30,ESE,112,1.0,4.0,54,0.00,,,0.00,Wunderground v.1.15,2013-04-28 01:49:00,
2013-04-27 21:50:00,55.2,38.8,30.30,ESE,102,1.0,1.0,54,0.00,,,0.00,Wunderground v.1.15,2013-04-28 01:50:00,
2013-04-27 21:52:00,55.1,39.2,30.30,ESE,121,1.0,4.0,55,0.00,,,0.00,Wunderground v.1.15,2013-04-28 01:52:00,
2013-04-27 21:54:00,55.0,38.6,30.30,ESE,111,2.0,4.0,54,0.00,,,0.00,Wunderground v.1.15,2013-04-28 01:54:00,
2013-04-27 21:55:00,55.0,39.1,30.30,ESE,102,2.0,4.0,55,0.00,,,0.00,Wunderground v.1.15,2013-04-28 01:55:00,
2013-04-27 21:58:00,54.9,39.0,30.30,ESE,117,2.0,4.0,55,0.00,,,0.00,Wunderground v.1.15,2013-04-28 01:58:00,
2013-04-27 22:00:00,54.8,38.9,30.30,ESE,113,1.0,1.0,55,0.00,,,0.00,Wunderground v.1.15,2013-04-28 02:00:00,
2013-04-27 22:01:00,54.7,38.8,30.30,ESE,114,1.0,8.0,55,0.00,,,0.00,Wunderground v.1.15,2013-04-28 02:01:00,
2013-04-27 22:04:00,54.3,38.9,30.30,ESE,107,1.0,8.0,56,0.00,,,0.00,Wunderground v.1.15,2013-04-28 02:04:00,
2013-04-27 22:05:00,54.3,38.9,30.29,ESE,111,1.0,8.0,56,0.00,,,0.00,Wunderground v.1.15,2013-04-28 02:05:00,
2013-04-27 22:06:00,54.2,38.8,30.29,ESE,114,1.0,8.0,56,0.00,,,0.00,Wunderground v.1.15,2013-04-28 02:06:00,
2013-04-27 22:07:00,54.2,39.3,30.29,ESE,115,1.0,8.0,57,0.00,,,0.00,Wunderground v.1.15,2013-04-28 02:07:00,
2013-04-27 22:10:00,54.0,38.6,30.30,East,93,1.0,1.0,56,0.00,,,0.00,Wunderground v.1.15,2013-04-28 02:10:00,
2013-04-27 22:11:00,54.0,38.6,30.30,ESE,113,1.0,5.0,56,0.00,,,0.00,Wunderground v.1.15,2013-04-28 02:11:00,
2013-04-27 22:14:00,54.1,38.7,30.30,ESE,103,1.0,5.0,56,0.00,,,0.00,Wunderground v.1.15,2013-04-28 02:14:00,
2013-04-27 22:16:00,54.0,38.6,30.30,SE,128,1.0,5.0,56,0.00,,,0.00,Wunderground v.1.15,2013-04-28 02:16:00,
2013-04-27 22:17:00,53.9,39.0,30.30,ESE,113,1.0,5.0,57,0.00,,,0.00,Wunderground v.1.15,2013-04-28 02:17:00,
2013-04-27 22:19:00,53.9,38.6,30.30,ESE,104,1.0,5.0,56,0.00,,,0.00,Wunderground v.1.15,2013-04-28 02:19:00,
2013-04-27 22:20:00,53.9,38.6,30.30,ESE,122,1.0,1.0,56,0.00,,,0.00,Wunderground v.1.15,2013-04-28 02:20:00,
2013-04-27 22:21:00,53.9,38.6,30.30,ESE,122,1.0,1.0,56,0.00,,,0.00,Wunderground v.1.15,2013-04-28 02:21:00,
2013-04-27 22:22:00,53.8,38.9,30.30,ESE,121,1.0,1.0,57,0.00,,,0.00,Wunderground v.1.15,2013-04-28 02:22:00,
2013-04-27 22:25:00,53.8,38.5,30.30,ESE,111,1.0,1.0,56,0.00,,,0.00,Wunderground v.1.15,2013-04-28 02:25:00,
2013-04-27 22:27:00,53.9,38.6,30.29,SE,126,2.0,6.0,56,0.00,,,0.00,Wunderground v.1.15,2013-04-28 02:27:00,
2013-04-27 22:28:00,54.0,38.6,30.29,ESE,122,1.0,6.0,56,0.00,,,0.00,Wunderground v.1.15,2013-04-28 02:28:00,
2013-04-27 22:29:00,53.9,39.0,30.29,SE,128,1.0,6.0,57,0.00,,,0.00,Wunderground v.1.15,2013-04-28 02:29:00,
2013-04-27 22:31:00,53.9,38.6,30.29,ESE,106,2.0,9.0,56,0.00,,,0.00,Wunderground v.1.15,2013-04-28 02:31:00,
2013-04-27 22:32:00,53.9,38.6,30.29,SE,127,2.0,9.0,56,0.00,,,0.00,Wunderground v.1.15,2013-04-28 02:32:00,
2013-04-27 22:35:00,53.8,38.5,30.29,ESE,114,2.0,9.0,56,0.00,,,0.00,Wunderground v.1.15,2013-04-28 02:35:00,
2013-04-27 22:36:00,53.9,38.6,30.29,SE,132,2.0,9.0,56,0.00,,,0.00,Wunderground v.1.15,2013-04-28 02:36:00,
2013-04-27 22:37:00,53.9,38.6,30.29,ESE,118,2.0,9.0,56,0.00,,,0.00,Wunderground v.1.15,2013-04-28 02:37:00,
2013-04-27 22:38:00,53.9,38.6,30.29,ESE,102,2.0,9.0,56,0.00,,,0.00,Wunderground v.1.15,2013-04-28 02:38:00,
2013-04-27 22:39:00,53.9,38.6,30.29,ESE,105,2.0,9.0,56,0.00,,,0.00,Wunderground v.1.15,2013-04-28 02:39:00,
2013-04-27 22:41:00,53.9,38.6,30.29,ESE,113,2.0,2.0,56,0.00,,,0.00,Wunderground v.1.15,2013-04-28 02:41:00,
2013-04-27 22:42:00,53.8,38.5,30.29,ESE,117,2.0,2.0,56,0.00,,,0.00,Wunderground v.1.15,2013-04-28 02:42:00,
2013-04-27 22:47:00,53.7,38.4,30.29,ESE,105,1.0,5.0,56,0.00,,,0.00,Wunderground v.1.15,2013-04-28 02:47:00,
2013-04-27 22:48:00,53.5,38.2,30.29,East,99,1.0,5.0,56,0.00,,,0.00,Wunderground v.1.15,2013-04-28 02:48:00,
2013-04-27 22:49:00,53.5,38.6,30.29,ESE,105,1.0,5.0,57,0.00,,,0.00,Wunderground v.1.15,2013-04-28 02:49:00,
2013-04-27 22:52:00,53.2,38.4,30.29,ESE,114,1.0,5.0,57,0.00,,,0.00,Wunderground v.1.15,2013-04-28 02:52:00,
2013-04-27 22:54:00,53.3,38.0,30.29,ESE,104,1.0,5.0,56,0.00,,,0.00,Wunderground v.1.15,2013-04-28 02:54:00,
2013-04-27 22:55:00,53.2,37.9,30.29,ESE,103,1.0,5.0,56,0.00,,,0.00,Wunderground v.1.15,2013-04-28 02:55:00,
2013-04-27 22:56:00,53.2,37.9,30.29,ESE,105,1.0,5.0,56,0.00,,,0.00,Wunderground v.1.15,2013-04-28 02:56:00,
2013-04-27 23:00:00,53.4,38.1,30.29,SE,132,1.0,1.0,56,0.00,,,0.00,Wunderground v.1.15,2013-04-28 03:00:00,
2013-04-27 23:01:00,53.3,38.0,30.29,SE,132,1.0,9.0,56,0.00,,,0.00,Wunderground v.1.15,2013-04-28 03:01:00,
2013-04-27 23:02:00,53.3,38.0,30.29,SE,132,1.0,9.0,56,0.00,,,0.00,Wunderground v.1.15,2013-04-28 03:02:00,
2013-04-27 23:03:00,53.3,38.0,30.29,SE,132,0.0,9.0,56,0.00,,,0.00,Wunderground v.1.15,2013-04-28 03:03:00,
2013-04-27 23:07:00,53.3,38.0,30.29,SE,130,0.0,9.0,56,0.00,,,0.00,Wunderground v.1.15,2013-04-28 03:07:00,
2013-04-27 23:08:00,53.3,38.0,30.29,SE,130,0.0,9.0,56,0.00,,,0.00,Wunderground v.1.15,2013-04-28 03:08:00,
2013-04-27 23:09:00,53.3,38.0,30.29,SE,130,0.0,9.0,56,0.00,,,0.00,Wunderground v.1.15,2013-04-28 03:09:00,
2013-04-27 23:12:00,53.2,37.9,30.29,SE,126,0.0,4.0,56,0.00,,,0.00,Wunderground v.1.15,2013-04-28 03:12:00,
2013-04-27 23:14:00,53.3,38.0,30.29,ESE,123,0.0,4.0,56,0.00,,,0.00,Wunderground v.1.15,2013-04-28 03:14:00,
2013-04-27 23:19:00,53.1,37.8,30.29,ESE,114,0.0,4.0,56,0.00,,,0.00,Wunderground v.1.15,2013-04-28 03:19:00,
2013-04-27 23:20:00,53.1,37.8,30.28,ESE,114,0.0,0.0,56,0.00,,,0.00,Wunderground v.1.15,2013-04-28 03:20:00,
2013-04-27 23:22:00,53.0,37.7,30.28,ESE,114,1.0,1.0,56,0.00,,,0.00,Wunderground v.1.15,2013-04-28 03:22:00,
2013-04-27 23:23:00,52.9,37.6,30.28,ESE,115,0.0,1.0,56,0.00,,,0.00,Wunderground v.1.15,2013-04-28 03:23:00,
2013-04-27 23:26:00,52.9,37.6,30.28,ESE,116,0.0,1.0,56,0.00,,,0.00,Wunderground v.1.15,2013-04-28 03:26:00,
2013-04-27 23:29:00,52.8,38.0,30.28,ESE,115,0.0,1.0,57,0.00,,,0.00,Wunderground v.1.15,2013-04-28 03:29:00,
2013-04-27 23:31:00,52.8,38.0,30.28,ESE,119,0.0,7.0,57,0.00,,,0.00,Wunderground v.1.15,2013-04-28 03:31:00,
2013-04-27 23:33:00,52.8,38.0,30.28,ESE,118,0.0,7.0,57,0.00,,,0.00,Wunderground v.1.15,2013-04-28 03:33:00,
2013-04-27 23:34:00,52.8,38.0,30.28,ESE,119,0.0,7.0,57,0.00,,,0.00,Wunderground v.1.15,2013-04-28 03:34:00,
2013-04-27 23:35:00,52.7,37.9,30.28,ESE,119,0.0,7.0,57,0.00,,,0.00,Wunderground v.1.15,2013-04-28 03:35:00,
2013-04-27 23:37:00,52.7,37.9,30.28,ESE,118,0.0,7.0,57,0.00,,,0.00,Wunderground v.1.15,2013-04-28 03:37:00,
2013-04-27 23:40:00,52.7,37.9,30.28,ESE,119,0.0,0.0,57,0.00,,,0.00,Wunderground v.1.15,2013-04-28 03:40:00,
2013-04-27 23:43:00,52.8,38.4,30.28,SE,142,0.0,2.0,58,0.00,,,0.00,Wunderground v.1.15,2013-04-28 03:43:00,
2013-04-27 23:44:00,52.8,38.4,30.28,SE,141,0.0,2.0,58,0.00,,,0.00,Wunderground v.1.15,2013-04-28 03:44:00,
2013-04-27 23:45:00,52.9,38.5,30.28,SE,138,0.0,2.0,58,0.00,,,0.00,Wunderground v.1.15,2013-04-28 03:45:00,
2013-04-27 23:46:00,52.9,38.5,30.28,SE,138,0.0,2.0,58,0.00,,,0.00,Wunderground v.1.15,2013-04-28 03:46:00,
2013-04-27 23:48:00,53.1,38.7,30.28,ESE,119,1.0,2.0,58,0.00,,,0.00,Wunderground v.1.15,2013-04-28 03:48:00,
2013-04-27 23:50:00,53.2,38.8,30.28,ESE,119,1.0,1.0,58,0.00,,,0.00,Wunderground v.1.15,2013-04-28 03:50:00,
2013-04-27 23:51:00,53.3,38.9,30.28,South,183,1.0,1.0,58,0.00,,,0.00,Wunderground v.1.15,2013-04-28 03:51:00,
2013-04-27 23:54:00,53.3,38.9,30.28,SE,141,1.0,1.0,58,0.00,,,0.00,Wunderground v.1.15,2013-04-28 03:54:00,
2013-04-27 23:56:00,53.5,38.6,30.28,SSE,156,1.0,4.0,57,0.00,,,0.00,Wunderground v.1.15,2013-04-28 03:56:00,
2013-04-27 23:59:00,53.6,38.7,30.28,SSE,152,1.0,4.0,57,0.00,,,0.00,Wunderground v.1.15,2013-04-28 03:59:00,